W4HSV Weather Reports


time (UTC)temp
F
wind
direction
speed
knots
gust
knots
rain 1hr
in
rain 24hr
in
rain mn
in
humidity
%
barometer
mb
20260904200827 97 136 3.5 7.8 0.00 0.00 0.00 51 1013.8
20260904200735 97 115 4.3 7.8 0.00 0.00 0.00 52 1013.7
20260904200621 97 83 5.2 7.8 0.00 0.00 0.00 52 1013.8
20260904200528 97 84 4.3 7.8 0.00 0.00 0.00 54 1013.7
20260904200435 97 111 2.6 6.1 0.00 0.00 0.00 52 1013.8
20260904200324 97 155 2.6 6.1 0.00 0.00 0.00 52 1013.8
20260904200255 97 146 1.7 6.1 0.00 0.00 0.00 54 1013.8
20260904200049 97 116 0.9 6.1 0.00 0.00 0.00 53 1013.9
20260904195933 97 61 1.7 6.1 0.00 0.00 0.00 53 1013.9
20260904195842 97 61 2.6 6.1 0.00 0.00 0.00 52 1013.9
20260904195731 97 85 3.5 6.1 0.00 0.00 0.00 51 1013.9
20260904195618 97 126 2.6 6.1 0.00 0.00 0.00 52 1013.9
20260904195546 97 125 3.5 6.1 0.00 0.00 0.00 51 1013.9
20260904195431 97 48 4.3 6.1 0.00 0.00 0.00 51 1014.0
20260904195319 97 57 4.3 8.7 0.00 0.00 0.00 51 1014.0
20260904195226 98 90 3.5 8.7 0.00 0.00 0.00 51 1014.0
20260904195132 98 23 3.5 8.7 0.00 0.00 0.00 52 1014.0
20260904195042 98 101 2.6 8.7 0.00 0.00 0.00 52 1014.1
20260904194927 98 157 3.5 8.7 0.00 0.00 0.00 53 1014.1
20260904194855 98 121 3.5 8.7 0.00 0.00 0.00 53 1014.1
20260904194826 98 84 5.2 8.7 0.00 0.00 0.00 52 1014.0
20260904194518 98 75 4.3 7.8 0.00 0.00 0.00 53 1014.2
20260904194450 98 51 3.5 7.8 0.00 0.00 0.00 52 1014.2
20260904194336 98 82 2.6 7.8 0.00 0.00 0.00 52 1014.1
20260904194222 98 63 3.5 7.8 0.00 0.00 0.00 52 1014.2
20260904194130 98 67 3.5 7.8 0.00 0.00 0.00 52 1014.2
20260904194018 98 113 2.6 7.8 0.00 0.00 0.00 54 1014.3
20260904193947 98 97 2.6 7.8 0.00 0.00 0.00 52 1014.3
20260904193836 98 53 2.6 7.8 0.00 0.00 0.00 53 1014.3
20260904193724 98 31 2.6 7.8 0.00 0.00 0.00 53 1014.2
20260904193631 98 42 4.3 7.8 0.00 0.00 0.00 54 1014.3
20260904193517 98 65 5.2 7.8 0.00 0.00 0.00 53 1014.3
20260904193425 98 138 4.3 7.8 0.00 0.00 0.00 56 1014.3
20260904193333 98 130 3.5 7.8 0.00 0.00 0.00 54 1014.2
20260904193305 98 121 3.5 7.0 0.00 0.00 0.00 51 1014.2
20260904193018 98 198 2.6 6.1 0.00 0.00 0.00 50 1014.2
20260904192926 98 177 3.5 6.1 0.00 0.00 0.00 51 1014.3
20260904192832 98 144 1.7 6.1 0.00 0.00 0.00 50 1014.3
20260904192742 98 251 1.7 6.1 0.00 0.00 0.00 50 1014.4
20260904192629 98 184 2.6 6.1 0.00 0.00 0.00 50 1014.4
20260904192536 98 158 3.5 6.1 0.00 0.00 0.00 51 1014.3
20260904192425 98 195 2.6 5.2 0.00 0.00 0.00 55 1014.3
20260904192332 98 154 1.7 4.3 0.00 0.00 0.00 54 1014.4
20260904192221 98 150 1.7 4.3 0.00 0.00 0.00 54 1014.4
20260904192131 98 194 1.7 4.3 0.00 0.00 0.00 52 1014.3
20260904192039 98 200 0.9 3.5 0.00 0.00 0.00 51 1014.4
20260904191923 98 78 0.9 7.0 0.00 0.00 0.00 51 1014.4
20260904191831 98 105 1.7 7.0 0.00 0.00 0.00 52 1014.3
20260904191800 98 105 1.7 7.0 0.00 0.00 0.00 52 1014.3
20260904191518 98 360 1.7 7.0 0.00 0.00 0.00 53 1014.5
20260904191426 98 360 1.7 7.0 0.00 0.00 0.00 53 1014.6
20260904191333 97 14 2.6 7.0 0.00 0.00 0.00 53 1014.5
20260904191221 97 327 3.5 7.0 0.00 0.00 0.00 53 1014.6
20260904191127 97 29 3.5 7.0 0.00 0.00 0.00 55 1014.6
20260904191054 97 36 3.5 7.0 0.00 0.00 0.00 55 1014.6
20260904190922 97 5 3.5 7.0 0.00 0.00 0.00 53 1014.6
20260904190829 97 39 4.3 7.8 0.00 0.00 0.00 54 1014.7
20260904190736 97 9 4.3 7.8 0.00 0.00 0.00 54 1014.7
20260904190623 97 36 4.3 7.8 0.00 0.00 0.00 53 1014.7
20260904190530 97 57 4.3 7.8 0.00 0.00 0.00 53 1014.8
20260904190421 97 90 4.3 7.8 0.00 0.00 0.00 53 1014.8
20260904190330 97 26 3.5 7.8 0.00 0.00 0.00 53 1014.8
20260904190300 97 67 3.5 7.8 0.00 0.00 0.00 53 1014.8
20260904190034 97 48 3.5 7.8 0.00 0.00 0.00 55 1014.8
20260904185927 97 97 3.5 6.1 0.00 0.00 0.00 54 1014.8
20260904185832 98 76 3.5 6.1 0.00 0.00 0.00 54 1014.8
20260904185646 98 157 3.5 6.1 0.00 0.00 0.00 52 1014.8
20260904185533 98 134 2.6 6.1 0.00 0.00 0.00 51 1014.9
20260904185418 99 150 1.7 6.1 0.00 0.00 0.00 51 1014.9
20260904185329 99 127 2.6 6.1 0.00 0.00 0.00 52 1014.9
20260904185235 99 75 2.6 6.1 0.00 0.00 0.00 52 1015.0
20260904185122 99 118 2.6 7.0 0.00 0.00 0.00 52 1015.0
20260904185049 99 355 2.6 7.0 0.00 0.00 0.00 53 1015.0
20260904184934 99 322 3.5 7.0 0.00 0.00 0.00 53 1015.0
20260904184822 99 301 2.6 7.0 0.00 0.00 0.00 54 1015.0
20260904184756 99 341 2.6 7.0 0.00 0.00 0.00 54 1015.0
20260904184528 99 19 3.5 7.0 0.00 0.00 0.00 53 1015.1
20260904184437 99 32 4.3 7.0 0.00 0.00 0.00 54 1015.1
20260904184322 99 21 4.3 7.0 0.00 0.00 0.00 54 1015.2
20260904184228 99 34 3.5 7.0 0.00 0.00 0.00 54 1015.2
20260904184120 99 11 3.5 7.0 0.00 0.00 0.00 54 1015.2
20260904184028 99 35 4.3 7.0 0.00 0.00 0.00 54 1015.2
20260904183934 99 22 4.3 7.0 0.00 0.00 0.00 55 1015.2
20260904183820 98 355 3.5 7.0 0.00 0.00 0.00 54 1015.2
20260904183727 98 92 4.3 7.0 0.00 0.00 0.00 56 1015.3
20260904183638 98 42 4.3 7.0 0.00 0.00 0.00 55 1015.2
20260904183524 98 35 2.6 7.0 0.00 0.00 0.00 55 1015.3
20260904183430 98 163 2.6 7.0 0.00 0.00 0.00 57 1015.2
20260904183338 98 78 3.5 7.0 0.00 0.00 0.00 57 1015.3
20260904183309 98 12 4.3 7.0 0.00 0.00 0.00 57 1015.3
20260904183045 98 15 5.2 13.9 0.00 0.00 0.00 56 1015.2
20260904182951 98 16 5.2 13.9 0.00 0.00 0.00 57 1015.2
20260904182857 98 349 4.3 13.9 0.00 0.00 0.00 57 1015.3
20260904182723 98 325 2.6 13.9 0.00 0.00 0.00 56 1015.3
20260904182631 98 5 2.6 13.9 0.00 0.00 0.00 55 1015.4
20260904182518 98 9 2.6 13.9 0.00 0.00 0.00 56 1015.4
20260904182426 98 36 3.5 13.9 0.00 0.00 0.00 55 1015.3
20260904182337 98 331 6.1 13.9 0.00 0.00 0.00 56 1015.4
20260904182224 98 22 7.8 13.9 0.00 0.00 0.00 55 1015.3
20260904182132 98 148 6.1 11.3 0.00 0.00 0.00 55 1015.3
20260904182018 98 98 2.6 7.0 0.00 0.00 0.00 55 1015.4
20260904181925 97 121 0.9 6.1 0.00 0.00 0.00 55 1015.4
20260904181835 97 281 0.9 6.1 0.00 0.00 0.00 56 1015.4
20260904181807 97 276 0.9 7.0 0.00 0.00 0.00 53 1015.4
20260904181519 97 90 1.7 7.0 0.00 0.00 0.00 54 1015.4
20260904181446 97 90 3.5 7.0 0.00 0.00 0.00 54 1015.4
20260904181332 98 132 3.5 7.0 0.00 0.00 0.00 56 1015.4
20260904181223 98 123 1.7 7.8 0.00 0.00 0.00 56 1015.5
20260904181130 98 112 1.7 7.8 0.00 0.00 0.00 56 1015.5
20260904181036 98 100 2.6 7.8 0.00 0.00 0.00 55 1015.5
20260904180922 98 113 2.6 7.8 0.00 0.00 0.00 54 1015.5
20260904180829 98 65 2.6 7.8 0.00 0.00 0.00 55 1015.5
20260904180720 98 40 2.6 7.8 0.00 0.00 0.00 54 1015.5
20260904180626 98 64 3.5 7.8 0.00 0.00 0.00 54 1015.6
20260904180532 98 88 5.2 7.8 0.00 0.00 0.00 55 1015.6
20260904180420 98 75 3.5 7.8 0.00 0.00 0.00 54 1015.6
20260904180327 98 168 3.5 7.0 0.00 0.00 0.00 56 1015.6
20260904180302 98 118 3.5 7.0 0.00 0.00 0.00 56 1015.6
20260904180035 98 13 4.3 6.1 0.00 0.00 0.00 56 1015.7
20260904175922 97 45 3.5 7.0 0.00 0.00 0.00 57 1015.8
20260904175828 97 46 1.7 5.2 0.00 0.00 0.00 58 1015.8
20260904175736 97 351 0.9 5.2 0.00 0.00 0.00 57 1015.7
20260904175625 97 29 0.9 5.2 0.00 0.00 0.00 57 1015.9
20260904175531 97 28 1.7 5.2 0.00 0.00 0.00 58 1015.7
20260904175418 97 50 3.5 8.7 0.00 0.00 0.00 58 1015.8
20260904175327 97 42 2.6 8.7 0.00 0.00 0.00 57 1015.9
20260904175233 97 46 1.7 8.7 0.00 0.00 0.00 57 1015.9
20260904175120 97 355 3.5 8.7 0.00 0.00 0.00 59 1015.9
20260904175030 97 360 3.5 8.7 0.00 0.00 0.00 62 1015.8
20260904174917 97 346 3.5 8.7 0.00 0.00 0.00 58 1015.9
20260904174824 97 355 5.2 8.7 0.00 0.00 0.00 57 1015.9
20260904174755 97 40 5.2 8.7 0.00 0.00 0.00 59 1015.9
20260904174534 97 49 3.5 7.0 0.00 0.00 0.00 57 1015.9
20260904174421 97 333 1.7 5.2 0.00 0.00 0.00 55 1015.9
20260904174328 97 281 1.7 5.2 0.00 0.00 0.00 55 1015.9
20260904174235 97 225 2.6 5.2 0.00 0.00 0.00 56 1016.0
20260904174122 97 182 2.6 5.2 0.00 0.00 0.00 56 1015.9
20260904174030 97 230 1.7 4.3 0.00 0.00 0.00 57 1016.0
20260904173922 96 213 0.9 4.3 0.00 0.00 0.00 57 1016.0
20260904173828 96 190 0.9 4.3 0.00 0.00 0.00 59 1016.0
20260904173736 96 277 0.9 6.1 0.00 0.00 0.00 60 1016.0
20260904173623 96 321 0.9 6.1 0.00 0.00 0.00 57 1016.0
20260904173531 96 360 0.9 6.1 0.00 0.00 0.00 57 1016.0
20260904173421 96 271 0.9 6.1 0.00 0.00 0.00 59 1016.1
20260904173327 96 341 1.7 6.1 0.00 0.00 0.00 57 1016.0
20260904173256 96 67 1.7 6.1 0.00 0.00 0.00 57 1016.0
20260904173050 96 74 1.7 6.1 0.00 0.00 0.00 56 1016.1
20260904172957 96 91 2.6 6.1 0.00 0.00 0.00 57 1016.1
20260904172826 96 52 2.6 5.2 0.00 0.00 0.00 59 1016.1
20260904172733 96 59 1.7 5.2 0.00 0.00 0.00 59 1016.1
20260904172639 96 59 2.6 5.2 0.00 0.00 0.00 58 1016.1
20260904172525 96 102 2.6 5.2 0.00 0.00 0.00 59 1016.0
20260904172431 96 121 2.6 5.2 0.00 0.00 0.00 59 1016.0
20260904172317 96 25 2.6 4.3 0.00 0.00 0.00 61 1016.1
20260904172229 95 24 3.5 4.3 0.00 0.00 0.00 61 1016.1
20260904172136 95 351 2.6 4.3 0.00 0.00 0.00 60 1016.1
20260904172025 95 308 1.7 5.2 0.00 0.00 0.00 60 1016.1
20260904171932 95 339 0.9 5.2 0.00 0.00 0.00 58 1016.1
20260904171838 95 107 1.7 5.2 0.00 0.00 0.00 61 1016.1
20260904171812 95 50 1.7 5.2 0.00 0.00 0.00 61 1016.1
20260904171524 95 126 1.7 6.1 0.00 0.00 0.00 60 1016.1
20260904171429 95 121 1.7 6.1 0.00 0.00 0.00 62 1016.1
20260904171357 95 101 2.6 6.1 0.00 0.00 0.00 63 1016.1
20260904171222 95 34 2.6 6.1 0.00 0.00 0.00 60 1016.2
20260904171131 95 355 0.9 6.1 0.00 0.00 0.00 61 1016.2
20260904171022 95 186 0.9 6.1 0.00 0.00 0.00 59 1016.2
20260904170928 95 186 1.7 6.1 0.00 0.00 0.00 58 1016.2
20260904170835 95 240 3.5 6.1 0.00 0.00 0.00 57 1016.2
20260904170722 95 188 4.3 6.1 0.00 0.00 0.00 58 1016.2
20260904170628 95 161 4.3 7.0 0.00 0.00 0.00 59 1016.3
20260904170519 95 155 3.5 7.0 0.00 0.00 0.00 60 1016.3
20260904170426 95 87 3.5 7.0 0.00 0.00 0.00 58 1016.3
20260904170354 95 129 2.6 7.0 0.00 0.00 0.00 59 1016.3
20260904170325 95 127 3.5 7.0 0.00 0.00 0.00 58 1016.4
20260904170037 95 157 1.7 7.0 0.00 0.00 0.00 58 1016.3
20260904165928 95 16 1.7 7.0 0.00 0.00 0.00 59 1016.4
20260904165854 95 51 2.6 7.0 0.00 0.00 0.00 60 1016.4
20260904165721 95 26 1.7 6.1 0.00 0.00 0.00 60 1016.4
20260904165628 95 355 1.7 6.1 0.00 0.00 0.00 58 1016.3
20260904165517 95 196 1.7 6.1 0.00 0.00 0.00 60 1016.4
20260904165423 96 147 2.6 6.1 0.00 0.00 0.00 59 1016.4
20260904165350 96 84 2.6 6.1 0.00 0.00 0.00 58 1016.5
20260904165220 95 103 3.5 6.1 0.00 0.00 0.00 59 1016.5
20260904165127 95 64 4.3 6.1 0.00 0.00 0.00 60 1016.5
20260904165054 95 59 4.3 6.1 0.00 0.00 0.00 60 1016.6
20260904164941 95 49 3.5 7.0 0.00 0.00 0.00 60 1016.5
20260904164846 95 15 1.7 5.2 0.00 0.00 0.00 58 1016.5
20260904164800 95 28 2.6 5.2 0.00 0.00 0.00 58 1016.5
20260904164534 95 46 2.6 5.2 0.00 0.00 0.00 60 1016.5
20260904164420 95 31 3.5 5.2 0.00 0.00 0.00 59 1016.5
20260904164328 95 35 3.5 6.1 0.00 0.00 0.00 61 1016.6
20260904164234 95 80 2.6 5.2 0.00 0.00 0.00 60 1016.6
20260904164120 95 50 2.6 5.2 0.00 0.00 0.00 65 1016.6
20260904164050 95 86 2.6 5.2 0.00 0.00 0.00 63 1016.6
20260904163936 95 83 2.6 5.2 0.00 0.00 0.00 60 1016.6
20260904163822 95 53 1.7 5.2 0.00 0.00 0.00 61 1016.6
20260904163747 94 22 0.9 3.5 0.00 0.00 0.00 60 1016.6
20260904163634 94 24 0.9 3.5 0.00 0.00 0.00 59 1016.7
20260904163520 94 157 0.9 4.3 0.00 0.00 0.00 60 1016.6
20260904163426 94 293 0.9 4.3 0.00 0.00 0.00 60 1016.6
20260904163336 94 275 0.9 4.3 0.00 0.00 0.00 60 1016.7
20260904163307 94 196 1.7 5.2 0.00 0.00 0.00 60 1016.7
20260904163020 95 213 2.6 5.2 0.00 0.00 0.00 60 1016.7
20260904162928 95 230 2.6 5.2 0.00 0.00 0.00 60 1016.7
20260904162839 95 254 2.6 5.2 0.00 0.00 0.00 60 1016.6
20260904162744 95 171 3.5 5.2 0.00 0.00 0.00 59 1016.6
20260904162630 95 190 2.6 5.2 0.00 0.00 0.00 60 1016.7
20260904162556 95 209 3.5 5.2 0.00 0.00 0.00 60 1016.6
20260904162422 95 198 2.6 5.2 0.00 0.00 0.00 60 1016.6
20260904162327 95 176 1.7 5.2 0.00 0.00 0.00 60 1016.7
20260904162234 95 260 1.7 5.2 0.00 0.00 0.00 61 1016.6
20260904162126 95 254 1.7 5.2 0.00 0.00 0.00 60 1016.7
20260904162033 95 275 1.7 5.2 0.00 0.00 0.00 60 1016.6
20260904161920 95 212 2.6 5.2 0.00 0.00 0.00 60 1016.7
20260904161848 95 194 2.6 5.2 0.00 0.00 0.00 60 1016.7
20260904161818 95 226 2.6 6.1 0.00 0.00 0.00 60 1016.7
20260904161554 95 265 3.5 6.1 0.00 0.00 0.00 61 1016.7
20260904161441 95 292 1.7 6.1 0.00 0.00 0.00 63 1016.8
20260904161327 95 231 0.9 6.1 0.00 0.00 0.00 62 1016.7
20260904161233 94 191 1.7 6.1 0.00 0.00 0.00 60 1016.7
20260904161119 95 149 2.6 6.1 0.00 0.00 0.00 60 1016.7
20260904161026 95 199 3.5 6.1 0.00 0.00 0.00 60 1016.7
20260904160917 95 187 2.6 6.1 0.00 0.00 0.00 61 1016.8
20260904160823 95 238 1.7 4.3 0.00 0.00 0.00 61 1016.8
20260904160731 95 178 1.7 3.5 0.00 0.00 0.00 60 1016.7
20260904160618 95 153 1.7 4.3 0.00 0.00 0.00 61 1016.8
20260904160545 94 155 1.7 4.3 0.00 0.00 0.00 60 1016.7
20260904160452 94 142 0.9 4.3 0.00 0.00 0.00 60 1016.8
20260904160358 94 200 0.9 4.3 0.00 0.00 0.00 60 1016.7
20260904160252 95 90 0.9 4.3 0.00 0.00 0.00 59 1016.7
20260904160025 94 338 0.9 4.3 0.00 0.00 0.00 60 1016.8
20260904155933 94 233 1.7 4.3 0.00 0.00 0.00 59 1016.8
20260904155820 95 233 2.6 4.3 0.00 0.00 0.00 59 1016.8
20260904155731 95 238 1.7 3.5 0.00 0.00 0.00 62 1016.7
20260904155617 94 165 0.9 4.3 0.00 0.00 0.00 61 1016.7
20260904155543 94 234 0.9 4.3 0.00 0.00 0.00 61 1016.7
20260904155429 94 111 0.9 5.2 0.00 0.00 0.00 62 1016.7
20260904155335 94 5 0.9 5.2 0.00 0.00 0.00 61 1016.8
20260904155223 94 5 0.9 5.2 0.00 0.00 0.00 60 1016.8
20260904155149 94 5 0.0 5.2 0.00 0.00 0.00 60 1016.8
20260904155019 94 5 0.9 5.2 0.00 0.00 0.00 62 1016.8
20260904154927 94 346 1.7 5.2 0.00 0.00 0.00 61 1016.8
20260904154834 94 258 2.6 5.2 0.00 0.00 0.00 60 1016.8
20260904154804 94 214 2.6 5.2 0.00 0.00 0.00 60 1016.8
20260904154522 94 198 1.7 5.2 0.00 0.00 0.00 62 1016.8
20260904154430 94 158 2.6 5.2 0.00 0.00 0.00 63 1016.9
20260904154337 94 205 2.6 5.2 0.00 0.00 0.00 64 1016.9
20260904154222 94 189 0.9 2.6 0.00 0.00 0.00 63 1016.8
20260904154131 94 321 0.0 2.6 0.00 0.00 0.00 63 1016.8
20260904154022 93 94 0.0 2.6 0.00 0.00 0.00 62 1016.8
20260904153927 93 46 0.0 4.3 0.00 0.00 0.00 61 1016.9
20260904153834 93 46 0.9 4.3 0.00 0.00 0.00 62 1016.9
20260904153721 93 46 1.7 4.3 0.00 0.00 0.00 63 1016.8
20260904153629 93 46 1.7 5.2 0.00 0.00 0.00 62 1016.9
20260904153535 93 44 0.9 5.2 0.00 0.00 0.00 63 1016.9
20260904153426 93 49 1.7 5.2 0.00 0.00 0.00 63 1016.9
20260904153332 93 51 2.6 5.2 0.00 0.00 0.00 63 1016.9
20260904153303 93 49 2.6 5.2 0.00 0.00 0.00 62 1016.9
20260904153057 93 129 2.6 5.2 0.00 0.00 0.00 64 1016.8
20260904152923 93 122 2.6 5.2 0.00 0.00 0.00 62 1016.9
20260904152833 93 180 2.6 5.2 0.00 0.00 0.00 62 1016.8
20260904152739 93 273 1.7 3.5 0.00 0.00 0.00 63 1016.8
20260904152625 93 199 0.9 4.3 0.00 0.00 0.00 64 1016.8
20260904152550 93 200 0.9 4.3 0.00 0.00 0.00 64 1016.8
20260904152436 93 46 0.9 4.3 0.00 0.00 0.00 63 1016.8
20260904152323 93 68 1.7 4.3 0.00 0.00 0.00 65 1016.8
20260904152229 93 117 1.7 4.3 0.00 0.00 0.00 63 1016.8
20260904152120 93 121 1.7 4.3 0.00 0.00 0.00 64 1016.8
20260904152026 93 124 1.7 4.3 0.00 0.00 0.00 64 1016.8
20260904151935 93 172 1.7 3.5 0.00 0.00 0.00 65 1016.8
20260904151822 93 126 0.9 2.6 0.00 0.00 0.00 65 1016.8
20260904151757 93 121 0.9 2.6 0.00 0.00 0.00 65 1016.8
20260904151531 92 220 0.9 2.6 0.00 0.00 0.00 63 1016.8
20260904151420 92 302 0.9 2.6 0.00 0.00 0.00 63 1016.8
20260904151323 92 348 0.9 2.6 0.00 0.00 0.00 64 1016.8
20260904151230 92 101 1.7 2.6 0.00 0.00 0.00 63 1016.8
20260904151117 92 188 1.7 2.6 0.00 0.00 0.00 63 1016.8
20260904151028 92 183 0.9 2.6 0.00 0.00 0.00 64 1016.8
20260904150935 92 154 0.9 5.2 0.00 0.00 0.00 65 1016.8
20260904150822 92 209 0.0 5.2 0.00 0.00 0.00 67 1016.8
20260904150728 92 209 0.0 5.2 0.00 0.00 0.00 65 1016.8
20260904150656 92 209 0.9 5.2 0.00 0.00 0.00 65 1016.7
20260904150524 92 224 0.9 5.2 0.00 0.00 0.00 65 1016.7
20260904150456 92 360 0.9 5.2 0.00 0.00 0.00 65 1016.7
20260904150401 92 82 1.7 5.2 0.00 0.00 0.00 65 1016.7
20260904150311 91 117 2.6 5.2 0.00 0.00 0.00 65 1016.8
20260904150024 91 208 1.7 6.1 0.00 0.00 0.00 66 1016.7
20260904145930 91 159 2.6 6.1 0.00 0.00 0.00 66 1016.7
20260904145841 91 206 2.6 6.1 0.00 0.00 0.00 65 1016.7
20260904145747 91 230 2.6 6.1 0.00 0.00 0.00 67 1016.7
20260904145652 91 209 0.9 6.1 0.00 0.00 0.00 67 1016.6
20260904145518 91 267 0.9 6.1 0.00 0.00 0.00 67 1016.6
20260904145426 91 307 0.9 6.1 0.00 0.00 0.00 67 1016.6
20260904145333 91 201 2.6 6.1 0.00 0.00 0.00 67 1016.7
20260904145220 91 216 2.6 6.1 0.00 0.00 0.00 66 1016.6
20260904145131 91 190 1.7 6.1 0.00 0.00 0.00 67 1016.6
20260904145038 91 177 0.9 4.3 0.00 0.00 0.00 66 1016.7
20260904144926 91 315 0.9 4.3 0.00 0.00 0.00 66 1016.6
20260904144831 91 61 1.7 4.3 0.00 0.00 0.00 66 1016.6
20260904144802 91 109 1.7 4.3 0.00 0.00 0.00 66 1016.6
20260904144539 91 207 1.7 4.3 0.00 0.00 0.00 66 1016.6
20260904144444 91 147 2.6 4.3 0.00 0.00 0.00 68 1016.6
20260904144331 91 114 1.7 4.3 0.00 0.00 0.00 69 1016.6
20260904144218 91 142 1.7 4.3 0.00 0.00 0.00 66 1016.5
20260904144125 91 200 0.9 4.3 0.00 0.00 0.00 66 1016.6
20260904144032 91 248 0.9 4.3 0.00 0.00 0.00 68 1016.6
20260904143923 91 66 0.0 4.3 0.00 0.00 0.00 66 1016.5
20260904143829 90 65 0.9 4.3 0.00 0.00 0.00 67 1016.6
20260904143717 90 195 1.7 4.3 0.00 0.00 0.00 66 1016.7
20260904143645 90 183 1.7 4.3 0.00 0.00 0.00 67 1016.6
20260904143552 90 234 0.9 4.3 0.00 0.00 0.00 68 1016.6
20260904143418 90 202 0.0 4.3 0.00 0.00 0.00 68 1016.5
20260904143325 90 219 0.0 4.3 0.00 0.00 0.00 69 1016.5
20260904143259 90 219 0.9 4.3 0.00 0.00 0.00 69 1016.5
20260904143032 90 174 0.9 4.3 0.00 0.00 0.00 69 1016.6
20260904142939 90 270 0.0 4.3 0.00 0.00 0.00 69 1016.6
20260904142824 89 238 0.9 4.3 0.00 0.00 0.00 68 1016.5
20260904142731 89 238 1.7 4.3 0.00 0.00 0.00 69 1016.5
20260904142621 89 188 1.7 4.3 0.00 0.00 0.00 68 1016.5
20260904142548 89 180 1.7 4.3 0.00 0.00 0.00 68 1016.5
20260904142435 89 230 0.9 4.3 0.00 0.00 0.00 68 1016.5
20260904142320 89 114 1.7 4.3 0.00 0.00 0.00 68 1016.5
20260904142228 89 114 1.7 4.3 0.00 0.00 0.00 68 1016.6
20260904142135 89 163 1.7 4.3 0.00 0.00 0.00 68 1016.5
20260904142025 89 191 2.6 4.3 0.00 0.00 0.00 68 1016.5
20260904141930 89 171 1.7 3.5 0.00 0.00 0.00 69 1016.5
20260904141838 89 170 0.9 4.3 0.00 0.00 0.00 70 1016.5
20260904141808 89 200 0.9 4.3 0.00 0.00 0.00 70 1016.5
20260904141525 88 78 0.0 4.3 0.00 0.00 0.00 71 1016.6
20260904141432 88 259 0.0 4.3 0.00 0.00 0.00 69 1016.6
20260904141318 88 259 0.9 4.3 0.00 0.00 0.00 70 1016.6
20260904141226 88 259 0.9 4.3 0.00 0.00 0.00 71 1016.5
20260904141153 88 257 1.7 4.3 0.00 0.00 0.00 71 1016.5
20260904141020 88 194 2.6 6.1 0.00 0.00 0.00 70 1016.6
20260904140932 88 206 2.6 6.1 0.00 0.00 0.00 71 1016.6
20260904140819 88 221 1.7 6.1 0.00 0.00 0.00 72 1016.6
20260904140726 88 157 0.9 6.1 0.00 0.00 0.00 71 1016.5
20260904140632 88 204 0.9 6.1 0.00 0.00 0.00 72 1016.5
20260904140518 88 184 1.7 6.1 0.00 0.00 0.00 71 1016.5
20260904140424 88 145 1.7 6.1 0.00 0.00 0.00 71 1016.5
20260904140335 88 194 3.5 6.1 0.00 0.00 0.00 71 1016.5
20260904140305 88 194 4.3 7.0 0.00 0.00 0.00 71 1016.5
20260904140017 87 182 4.3 6.1 0.00 0.00 0.00 72 1016.5
20260904135923 87 123 3.5 6.1 0.00 0.00 0.00 72 1016.5
20260904135835 87 111 1.7 3.5 0.00 0.00 0.00 73 1016.5
20260904135721 87 120 0.9 3.5 0.00 0.00 0.00 73 1016.5
20260904135627 87 96 0.0 3.5 0.00 0.00 0.00 72 1016.5
20260904135535 87 120 0.9 3.5 0.00 0.00 0.00 73 1016.5
20260904135419 87 120 1.7 3.5 0.00 0.00 0.00 73 1016.5
20260904135327 87 119 1.7 3.5 0.00 0.00 0.00 73 1016.5
20260904135237 87 129 0.9 3.5 0.00 0.00 0.00 73 1016.5
20260904135143 87 96 1.7 3.5 0.00 0.00 0.00 73 1016.5
20260904135027 87 92 2.6 3.5 0.00 0.00 0.00 73 1016.4
20260904134953 87 107 2.6 3.5 0.00 0.00 0.00 74 1016.5
20260904134819 87 146 0.9 3.5 0.00 0.00 0.00 72 1016.5
20260904134753 87 127 0.9 3.5 0.00 0.00 0.00 73 1016.5
20260904134525 87 79 0.9 2.6 0.00 0.00 0.00 73 1016.5
20260904134433 87 79 1.7 2.6 0.00 0.00 0.00 73 1016.5
20260904134319 87 113 2.6 2.6 0.00 0.00 0.00 72 1016.5
20260904134226 87 131 1.7 2.6 0.00 0.00 0.00 72 1016.5
20260904134117 87 90 0.9 2.6 0.00 0.00 0.00 72 1016.5
20260904134024 87 118 0.9 2.6 0.00 0.00 0.00 73 1016.6
20260904133931 87 117 0.0 2.6 0.00 0.00 0.00 73 1016.5
20260904133819 87 98 0.9 2.6 0.00 0.00 0.00 73 1016.5
20260904133727 87 98 0.9 2.6 0.00 0.00 0.00 73 1016.5
20260904133634 87 123 0.9 2.6 0.00 0.00 0.00 72 1016.5
20260904133524 87 107 0.9 2.6 0.00 0.00 0.00 73 1016.4
20260904133431 87 107 0.9 2.6 0.00 0.00 0.00 73 1016.5
20260904133338 87 78 0.9 2.6 0.00 0.00 0.00 73 1016.5
20260904133309 87 88 0.9 2.6 0.00 0.00 0.00 73 1016.5
20260904133025 87 84 0.9 2.6 0.00 0.00 0.00 73 1016.4
20260904132933 87 126 0.0 1.7 0.00 0.00 0.00 73 1016.5
20260904132858 87 53 0.0 2.6 0.00 0.00 0.00 73 1016.6
20260904132743 87 53 0.0 2.6 0.00 0.00 0.00 73 1016.5
20260904132649 87 109 0.0 2.6 0.00 0.00 0.00 73 1016.6
20260904132537 87 110 0.0 2.6 0.00 0.00 0.00 73 1016.5
20260904132443 86 94 0.0 2.6 0.00 0.00 0.00 74 1016.5
20260904132329 86 112 0.9 2.6 0.00 0.00 0.00 73 1016.6
20260904132220 86 154 0.9 2.6 0.00 0.00 0.00 74 1016.5
20260904132127 86 66 0.9 2.6 0.00 0.00 0.00 74 1016.5
20260904132033 86 71 0.9 2.6 0.00 0.00 0.00 75 1016.5
20260904131920 86 80 0.9 2.6 0.00 0.00 0.00 75 1016.5
20260904131849 86 57 0.9 2.6 0.00 0.00 0.00 75 1016.5
20260904131802 86 71 0.9 2.6 0.00 0.00 0.00 75 1016.5
20260904131554 86 74 1.7 2.6 0.00 0.00 0.00 76 1016.5
20260904131420 86 99 0.9 1.7 0.00 0.00 0.00 76 1016.5
20260904131326 86 85 0.0 1.7 0.00 0.00 0.00 77 1016.5
20260904131234 86 76 0.0 1.7 0.00 0.00 0.00 77 1016.4
20260904131125 85 126 0.9 1.7 0.00 0.00 0.00 77 1016.4
20260904131051 85 126 0.9 1.7 0.00 0.00 0.00 77 1016.4
20260904130917 85 119 0.0 1.7 0.00 0.00 0.00 78 1016.5
20260904130825 85 107 0.0 0.9 0.00 0.00 0.00 78 1016.5
20260904130752 85 67 0.0 0.9 0.00 0.00 0.00 78 1016.4
20260904130617 85 360 0.0 0.0 0.00 0.00 0.00 78 1016.5
20260904130523 85 360 0.0 0.0 0.00 0.00 0.00 79 1016.5
20260904130435 84 360 0.0 0.0 0.00 0.00 0.00 79 1016.6
20260904130322 84 360 0.0 0.0 0.00 0.00 0.00 80 1016.4
20260904130253 84 360 0.0 0.9 0.00 0.00 0.00 80 1016.4
20260904130027 84 360 0.0 0.9 0.00 0.00 0.00 80 1016.4
20260904125937 84 360 0.0 1.7 0.00 0.00 0.00 80 1016.5
20260904125844 84 360 0.0 1.7 0.00 0.00 0.00 81 1016.4
20260904125728 83 360 0.0 1.7 0.00 0.00 0.00 81 1016.4
20260904125636 83 360 0.0 1.7 0.00 0.00 0.00 81 1016.4
20260904125523 83 360 0.0 1.7 0.00 0.00 0.00 81 1016.5
20260904125429 83 360 0.0 1.7 0.00 0.00 0.00 81 1016.5
20260904125320 83 360 0.0 1.7 0.00 0.00 0.00 81 1016.5
20260904125227 83 360 0.0 1.7 0.00 0.00 0.00 82 1016.4
20260904125133 83 360 0.9 1.7 0.00 0.00 0.00 83 1016.3
20260904125020 83 360 0.0 1.7 0.00 0.00 0.00 82 1016.4
20260904124926 82 360 0.0 1.7 0.00 0.00 0.00 82 1016.4
20260904124833 82 360 0.0 1.7 0.00 0.00 0.00 82 1016.4
20260904124808 82 360 0.0 1.7 0.00 0.00 0.00 83 1016.4
20260904124521 82 360 0.9 1.7 0.00 0.00 0.00 82 1016.4
20260904124448 82 360 0.9 1.7 0.00 0.00 0.00 83 1016.3
20260904124334 82 360 0.9 1.7 0.00 0.00 0.00 82 1016.3
20260904124224 81 360 0.9 1.7 0.00 0.00 0.00 83 1016.2
20260904124151 81 360 0.9 1.7 0.00 0.00 0.00 83 1016.4
20260904124036 81 360 0.0 2.6 0.00 0.00 0.00 84 1016.3
20260904123923 81 360 0.0 2.6 0.00 0.00 0.00 84 1016.3
20260904123848 81 360 0.0 2.6 0.00 0.00 0.00 84 1016.3
20260904123733 81 360 0.0 2.6 0.00 0.00 0.00 84 1016.3
20260904123620 81 360 0.0 2.6 0.00 0.00 0.00 84 1016.3
20260904123550 81 360 0.9 2.6 0.00 0.00 0.00 84 1016.2
20260904123435 81 360 0.9 2.6 0.00 0.00 0.00 84 1016.3
20260904123323 80 360 0.9 1.7 0.00 0.00 0.00 85 1016.3
20260904123253 80 360 0.9 1.7 0.00 0.00 0.00 85 1016.3
20260904123046 80 140 0.0 0.9 0.00 0.00 0.00 85 1016.2
20260904122953 80 140 0.0 0.0 0.00 0.00 0.00 85 1016.2
20260904122823 80 140 0.0 0.0 0.00 0.00 0.00 86 1016.2
20260904122729 80 140 0.0 0.9 0.00 0.00 0.00 86 1016.2
20260904122635 79 140 0.0 0.9 0.00 0.00 0.00 86 1016.2
20260904122521 79 140 0.0 1.7 0.00 0.00 0.00 86 1016.2
20260904122430 79 140 0.0 1.7 0.00 0.00 0.00 87 1016.2
20260904122340 79 140 0.0 1.7 0.00 0.00 0.00 87 1016.1
20260904122246 79 140 0.0 1.7 0.00 0.00 0.00 87 1016.1
20260904122133 79 140 0.0 1.7 0.00 0.00 0.00 87 1016.1
20260904122020 79 140 0.0 1.7 0.00 0.00 0.00 87 1016.1
20260904121926 79 140 0.9 1.7 0.00 0.00 0.00 87 1016.1
20260904121833 79 140 0.9 1.7 0.00 0.00 0.00 87 1016.2
20260904121809 79 140 0.9 1.7 0.00 0.00 0.00 88 1016.2
20260904121522 78 140 0.0 1.7 0.00 0.00 0.00 88 1016.1
20260904121448 78 140 0.0 1.7 0.00 0.00 0.00 88 1016.1
20260904121336 78 140 0.0 1.7 0.00 0.00 0.00 88 1016.1
20260904121224 78 140 0.9 1.7 0.00 0.00 0.00 88 1016.1
20260904121134 78 140 0.9 1.7 0.00 0.00 0.00 88 1016.1
20260904121021 78 140 0.9 1.7 0.00 0.00 0.00 88 1016.1
20260904120948 78 140 0.9 1.7 0.00 0.00 0.00 88 1016.1
20260904120835 78 140 0.9 1.7 0.00 0.00 0.00 89 1016.1
20260904120722 78 140 0.9 1.7 0.00 0.00 0.00 89 1016.1
20260904120630 78 140 0.9 1.7 0.00 0.00 0.00 89 1016.1
20260904120522 78 140 0.9 1.7 0.00 0.00 0.00 89 1016.1
20260904120448 78 140 0.9 1.7 0.00 0.00 0.00 89 1016.1
20260904120355 77 140 0.9 1.7 0.00 0.00 0.00 89 1016.1
20260904120304 77 140 0.9 1.7 0.00 0.00 0.00 90 1016.1
20260904120036 77 140 1.7 1.7 0.00 0.00 0.00 90 1016.0
20260904115926 77 140 1.7 1.7 0.00 0.00 0.00 90 1015.9
20260904115833 77 140 0.9 1.7 0.00 0.00 0.00 90 1016.0
20260904115719 77 140 0.9 1.7 0.00 0.00 0.00 90 1016.0
20260904115627 77 140 0.9 1.7 0.00 0.00 0.00 90 1016.0
20260904115535 77 140 0.9 1.7 0.00 0.00 0.00 90 1016.0
20260904115420 77 155 0.0 1.7 0.00 0.00 0.00 90 1016.0
20260904115332 77 155 0.0 1.7 0.00 0.00 0.00 91 1016.1
20260904115219 77 155 0.9 1.7 0.00 0.00 0.00 91 1016.0
20260904115126 77 155 0.9 1.7 0.00 0.00 0.00 91 1015.9
20260904115034 77 155 0.0 1.7 0.00 0.00 0.00 91 1016.0
20260904114921 77 109 0.9 1.7 0.00 0.00 0.00 90 1015.9
20260904114802 76 109 0.0 1.7 0.00 0.00 0.00 91 1016.0
20260904114536 76 109 0.0 0.0 0.00 0.00 0.00 91 1016.0
20260904114424 76 109 0.0 0.0 0.00 0.00 0.00 91 1015.9
20260904114330 76 109 0.0 0.9 0.00 0.00 0.00 91 1015.9
20260904114220 76 109 0.0 1.7 0.00 0.00 0.00 91 1016.0
20260904114128 76 109 0.0 1.7 0.00 0.00 0.00 91 1015.9
20260904114037 76 109 0.0 2.6 0.00 0.00 0.00 91 1016.0
20260904113924 76 109 0.0 2.6 0.00 0.00 0.00 91 1015.9
20260904113829 76 109 0.0 2.6 0.00 0.00 0.00 91 1015.9
20260904113721 76 109 0.0 2.6 0.00 0.00 0.00 91 1015.9
20260904113628 76 109 0.0 2.6 0.00 0.00 0.00 92 1015.9
20260904113557 76 109 0.0 2.6 0.00 0.00 0.00 92 1015.9
20260904113424 76 109 0.9 2.6 0.00 0.00 0.00 92 1015.7
20260904113305 76 109 0.9 2.6 0.00 0.00 0.00 92 1015.9
20260904113018 76 69 0.0 1.7 0.00 0.00 0.00 92 1015.9
20260904112924 76 9 0.0 1.7 0.00 0.00 0.00 92 1015.8
20260904112852 76 9 0.0 1.7 0.00 0.00 0.00 92 1015.7
20260904112737 76 9 0.0 1.7 0.00 0.00 0.00 92 1015.8
20260904112623 76 5 0.0 1.7 0.00 0.00 0.00 91 1015.7
20260904112555 76 9 0.0 1.7 0.00 0.00 0.00 91 1015.8
20260904112421 76 9 0.0 1.7 0.00 0.00 0.00 92 1015.8
20260904112329 76 9 0.0 1.7 0.00 0.00 0.00 92 1015.7
20260904112256 76 9 0.0 1.7 0.00 0.00 0.00 92 1015.7
20260904112120 76 9 0.9 1.7 0.00 0.00 0.00 92 1015.7
20260904112049 76 9 0.9 2.6 0.00 0.00 0.00 91 1015.6
20260904111917 76 9 0.9 2.6 0.00 0.00 0.00 91 1015.6
20260904111828 76 5 0.9 2.6 0.00 0.00 0.00 91 1015.7
20260904111759 76 5 0.9 2.6 0.00 0.00 0.00 91 1015.7
20260904111532 76 9 0.9 2.6 0.00 0.00 0.00 91 1015.7
20260904111438 76 9 0.9 2.6 0.00 0.00 0.00 91 1015.8
20260904111325 76 9 0.9 2.6 0.00 0.00 0.00 92 1015.6
20260904111236 76 9 1.7 2.6 0.00 0.00 0.00 91 1015.8
20260904111123 76 9 1.7 2.6 0.00 0.00 0.00 91 1015.7
20260904111050 76 9 1.7 2.6 0.00 0.00 0.00 91 1015.7
20260904110935 76 9 1.7 2.6 0.00 0.00 0.00 91 1015.8
20260904110823 76 9 1.7 2.6 0.00 0.00 0.00 91 1015.8
20260904110729 76 9 1.7 2.6 0.00 0.00 0.00 91 1015.7
20260904110620 76 9 1.7 2.6 0.00 0.00 0.00 91 1015.7
20260904110527 76 9 1.7 2.6 0.00 0.00 0.00 91 1015.7
20260904110435 76 9 1.7 2.6 0.00 0.00 0.00 91 1015.6
20260904110320 76 9 1.7 2.6 0.00 0.00 0.00 91 1015.6
20260904110254 76 9 1.7 2.6 0.00 0.00 0.00 91 1015.6
20260904110026 76 5 1.7 2.6 0.00 0.00 0.00 91 1015.5
20260904105934 76 17 1.7 2.6 0.00 0.00 0.00 91 1015.5
20260904105822 76 355 1.7 2.6 0.00 0.00 0.00 91 1015.5
20260904105728 76 355 1.7 2.6 0.00 0.00 0.00 91 1015.4
20260904105620 76 355 1.7 2.6 0.00 0.00 0.00 91 1015.5
20260904105528 76 355 1.7 2.6 0.00 0.00 0.00 91 1015.4
20260904105435 76 355 1.7 2.6 0.00 0.00 0.00 91 1015.4
20260904105321 76 355 1.7 2.6 0.00 0.00 0.00 91 1015.5
20260904105227 76 355 1.7 2.6 0.00 0.00 0.00 91 1015.4
20260904105135 76 355 2.6 3.5 0.00 0.00 0.00 91 1015.3
20260904105026 76 5 1.7 3.5 0.00 0.00 0.00 91 1015.4
20260904104932 76 355 1.7 3.5 0.00 0.00 0.00 91 1015.3
20260904104811 76 5 1.7 3.5 0.00 0.00 0.00 91 1015.4
20260904104527 76 349 2.6 3.5 0.00 0.00 0.00 91 1015.4
20260904104433 76 350 2.6 3.5 0.00 0.00 0.00 91 1015.4
20260904104320 76 360 2.6 3.5 0.00 0.00 0.00 91 1015.4
20260904104226 76 355 2.6 3.5 0.00 0.00 0.00 91 1015.4
20260904104154 76 350 1.7 3.5 0.00 0.00 0.00 91 1015.4
20260904104019 76 355 1.7 2.6 0.00 0.00 0.00 91 1015.4
20260904103930 76 355 1.7 2.6 0.00 0.00 0.00 91 1015.4
20260904103818 76 355 1.7 2.6 0.00 0.00 0.00 91 1015.3
20260904103744 76 355 1.7 2.6 0.00 0.00 0.00 91 1015.3
20260904103650 76 355 1.7 2.6 0.00 0.00 0.00 91 1015.3
20260904103536 76 355 1.7 2.6 0.00 0.00 0.00 91 1015.3
20260904103423 76 355 1.7 2.6 0.00 0.00 0.00 91 1015.3
20260904103306 76 355 1.7 2.6 0.00 0.00 0.00 91 1015.4
20260904103039 76 355 1.7 2.6 0.00 0.00 0.00 91 1015.3
20260904102926 76 355 1.7 2.6 0.00 0.00 0.00 91 1015.4
20260904102854 76 355 1.7 2.6 0.00 0.00 0.00 91 1015.3
20260904102718 76 355 1.7 2.6 0.00 0.00 0.00 91 1015.3
20260904102630 76 355 1.7 2.6 0.00 0.00 0.00 91 1015.2
20260904102538 76 355 1.7 2.6 0.00 0.00 0.00 91 1015.3
20260904102423 76 355 1.7 2.6 0.00 0.00 0.00 91 1015.3
20260904102329 76 355 1.7 2.6 0.00 0.00 0.00 91 1015.3
20260904102256 76 355 1.7 3.5 0.00 0.00 0.00 91 1015.2
20260904102120 76 355 1.7 3.5 0.00 0.00 0.00 91 1015.2
20260904102027 76 355 1.7 3.5 0.00 0.00 0.00 91 1015.2
20260904101919 76 355 1.7 3.5 0.00 0.00 0.00 91 1015.3
20260904101846 76 355 1.7 3.5 0.00 0.00 0.00 91 1015.3
20260904101816 76 355 1.7 3.5 0.00 0.00 0.00 91 1015.3
20260904101528 76 344 2.6 3.5 0.00 0.00 0.00 91 1015.2
20260904101419 76 351 2.6 3.5 0.00 0.00 0.00 91 1015.1
20260904101325 76 340 2.6 2.6 0.00 0.00 0.00 91 1015.3
20260904101232 76 355 1.7 2.6 0.00 0.00 0.00 91 1015.1
20260904101119 76 338 1.7 2.6 0.00 0.00 0.00 91 1015.2
20260904101026 76 338 1.7 2.6 0.00 0.00 0.00 91 1015.2
20260904100932 76 5 1.7 2.6 0.00 0.00 0.00 91 1015.1
20260904100824 76 5 1.7 2.6 0.00 0.00 0.00 91 1015.2
20260904100732 76 5 1.7 1.7 0.00 0.00 0.00 91 1015.2
20260904100618 76 5 0.9 1.7 0.00 0.00 0.00 91 1015.2
20260904100545 76 5 0.0 2.6 0.00 0.00 0.00 91 1015.1
20260904100451 76 5 0.0 2.6 0.00 0.00 0.00 91 1015.2
20260904100318 76 5 0.0 2.6 0.00 0.00 0.00 91 1015.1
20260904100251 76 5 0.9 2.6 0.00 0.00 0.00 91 1015.1
20260904100023 76 5 0.9 2.6 0.00 0.00 0.00 91 1015.1
20260904095930 76 5 1.7 2.6 0.00 0.00 0.00 91 1015.0
20260904095836 76 5 1.7 2.6 0.00 0.00 0.00 90 1015.0
20260904095742 76 5 1.7 2.6 0.00 0.00 0.00 91 1015.0
20260904095626 76 5 1.7 2.6 0.00 0.00 0.00 91 1015.0
20260904095518 76 5 1.7 2.6 0.00 0.00 0.00 91 1015.1
20260904095424 76 5 1.7 2.6 0.00 0.00 0.00 91 1015.0
20260904095330 76 5 1.7 2.6 0.00 0.00 0.00 91 1015.0
20260904095236 76 5 1.7 2.6 0.00 0.00 0.00 91 1015.0
20260904095123 76 5 1.7 2.6 0.00 0.00 0.00 91 1015.0
20260904095034 76 5 1.7 2.6 0.00 0.00 0.00 91 1015.0
20260904094923 76 5 1.7 2.6 0.00 0.00 0.00 91 1015.0
20260904094850 76 351 2.6 2.6 0.00 0.00 0.00 91 1015.0
20260904094758 76 355 2.6 2.6 0.00 0.00 0.00 90 1015.0
20260904094533 76 355 1.7 2.6 0.00 0.00 0.00 90 1014.9
20260904094425 76 355 1.7 1.7 0.00 0.00 0.00 90 1015.0
20260904094332 76 325 1.7 1.7 0.00 0.00 0.00 90 1015.0
20260904094218 76 325 0.9 1.7 0.00 0.00 0.00 90 1015.0
20260904094124 76 325 0.9 1.7 0.00 0.00 0.00 90 1014.9
20260904094050 76 325 0.9 1.7 0.00 0.00 0.00 90 1015.0
20260904093935 76 325 0.9 1.7 0.00 0.00 0.00 90 1015.0
20260904093826 76 325 0.9 1.7 0.00 0.00 0.00 91 1015.0
20260904093734 76 325 0.9 1.7 0.00 0.00 0.00 91 1014.9
20260904093622 76 325 0.9 1.7 0.00 0.00 0.00 91 1014.9
20260904093529 76 325 0.9 1.7 0.00 0.00 0.00 91 1014.9
20260904093418 77 325 0.9 1.7 0.00 0.00 0.00 91 1014.9
20260904093344 77 325 0.9 1.7 0.00 0.00 0.00 91 1014.9
20260904093319 77 325 0.9 1.7 0.00 0.00 0.00 91 1014.9
20260904093032 77 325 0.9 1.7 0.00 0.00 0.00 91 1014.8
20260904092919 77 325 0.9 1.7 0.00 0.00 0.00 90 1015.0
20260904092847 77 325 0.9 1.7 0.00 0.00 0.00 90 1014.9
20260904092731 77 325 0.9 0.9 0.00 0.00 0.00 90 1014.9
20260904092622 77 325 0.9 0.9 0.00 0.00 0.00 90 1014.9
20260904092550 77 325 0.0 0.9 0.00 0.00 0.00 90 1014.9
20260904092437 77 325 0.0 0.9 0.00 0.00 0.00 91 1014.9
20260904092324 77 325 0.0 0.9 0.00 0.00 0.00 90 1015.0
20260904092251 77 325 0.0 1.7 0.00 0.00 0.00 90 1014.9
20260904092117 77 325 0.0 1.7 0.00 0.00 0.00 90 1014.9
20260904092030 77 325 0.0 1.7 0.00 0.00 0.00 90 1014.9
20260904091917 77 325 0.0 1.7 0.00 0.00 0.00 90 1015.0
20260904091845 77 325 0.0 1.7 0.00 0.00 0.00 90 1015.0
20260904091815 77 325 0.0 1.7 0.00 0.00 0.00 90 1015.0
20260904091529 77 325 0.0 2.6 0.00 0.00 0.00 90 1014.9
20260904091421 77 325 0.9 2.6 0.00 0.00 0.00 90 1014.9
20260904091348 77 325 0.9 2.6 0.00 0.00 0.00 90 1014.8
20260904091235 77 325 0.9 2.6 0.00 0.00 0.00 90 1014.8
20260904091120 77 325 0.9 2.6 0.00 0.00 0.00 90 1014.8
20260904091028 77 10 1.7 2.6 0.00 0.00 0.00 90 1014.8
20260904090936 77 10 1.7 2.6 0.00 0.00 0.00 90 1014.9
20260904090845 77 10 1.7 2.6 0.00 0.00 0.00 90 1014.9
20260904090731 77 10 1.7 2.6 0.00 0.00 0.00 90 1014.8
20260904090618 77 10 1.7 2.6 0.00 0.00 0.00 90 1014.9
20260904090525 77 10 1.7 2.6 0.00 0.00 0.00 89 1014.9
20260904090431 77 10 1.7 2.6 0.00 0.00 0.00 89 1014.8
20260904090318 77 10 1.7 2.6 0.00 0.00 0.00 89 1015.0
20260904090253 77 10 1.7 2.6 0.00 0.00 0.00 89 1015.0
20260904090026 77 10 1.7 2.6 0.00 0.00 0.00 89 1014.9
20260904085933 77 10 1.7 2.6 0.00 0.00 0.00 89 1014.8
20260904085820 77 10 1.7 2.6 0.00 0.00 0.00 89 1014.8
20260904085732 77 10 1.7 2.6 0.00 0.00 0.00 89 1014.8
20260904085618 77 10 1.7 2.6 0.00 0.00 0.00 89 1014.9
20260904085526 77 10 1.7 2.6 0.00 0.00 0.00 89 1014.9
20260904085452 77 10 1.7 2.6 0.00 0.00 0.00 89 1014.8
20260904085317 77 10 1.7 2.6 0.00 0.00 0.00 89 1014.9
20260904085243 78 10 1.7 2.6 0.00 0.00 0.00 89 1014.8
20260904085130 78 5 1.7 2.6 0.00 0.00 0.00 89 1014.9
20260904085042 78 360 2.6 2.6 0.00 0.00 0.00 89 1014.9
20260904084947 78 360 1.7 2.6 0.00 0.00 0.00 89 1014.9
20260904084853 78 355 0.9 2.6 0.00 0.00 0.00 89 1014.9
20260904084801 78 355 0.0 2.6 0.00 0.00 0.00 88 1014.8
20260904084535 78 355 0.0 0.0 0.00 0.00 0.00 88 1014.8
20260904084426 78 342 0.0 0.0 0.00 0.00 0.00 88 1014.8
20260904084333 78 276 0.0 0.0 0.00 0.00 0.00 88 1014.8
20260904084220 78 276 0.0 0.0 0.00 0.00 0.00 88 1014.9
20260904084126 78 276 0.0 0.0 0.00 0.00 0.00 87 1014.8
20260904084033 78 276 0.0 0.0 0.00 0.00 0.00 87 1014.8
20260904083920 78 276 0.0 0.0 0.00 0.00 0.00 87 1014.8
20260904083833 78 276 0.0 0.0 0.00 0.00 0.00 87 1014.8
20260904083719 78 276 0.0 0.0 0.00 0.00 0.00 87 1014.8
20260904083626 78 276 0.0 0.0 0.00 0.00 0.00 87 1014.9
20260904083534 78 276 0.0 0.0 0.00 0.00 0.00 87 1014.8
20260904083422 78 276 0.0 0.0 0.00 0.00 0.00 87 1014.8
20260904083348 78 276 0.0 0.0 0.00 0.00 0.00 87 1014.8
20260904083301 78 276 0.0 0.0 0.00 0.00 0.00 87 1014.8
20260904083033 78 276 0.0 0.0 0.00 0.00 0.00 87 1014.8
20260904082921 78 276 0.0 0.0 0.00 0.00 0.00 86 1014.8
20260904082827 78 276 0.0 0.0 0.00 0.00 0.00 86 1014.8
20260904082754 78 276 0.0 0.0 0.00 0.00 0.00 86 1014.9
20260904082624 78 276 0.0 0.0 0.00 0.00 0.00 86 1014.8
20260904082531 78 276 0.0 0.0 0.00 0.00 0.00 86 1014.8
20260904082418 78 276 0.0 0.0 0.00 0.00 0.00 87 1014.8
20260904082325 78 276 0.0 0.9 0.00 0.00 0.00 87 1014.8
20260904082231 78 276 0.0 0.9 0.00 0.00 0.00 87 1014.8
20260904082123 79 276 0.0 0.9 0.00 0.00 0.00 87 1014.8
20260904082030 79 276 0.0 0.9 0.00 0.00 0.00 87 1014.8
20260904081917 79 276 0.0 0.9 0.00 0.00 0.00 87 1014.8
20260904081844 79 276 0.0 0.9 0.00 0.00 0.00 87 1014.9
20260904081816 79 276 0.0 0.9 0.00 0.00 0.00 87 1014.9
20260904081532 79 276 0.9 0.9 0.00 0.00 0.00 87 1014.9
20260904081439 79 276 0.9 0.9 0.00 0.00 0.00 87 1014.8
20260904081325 79 276 0.9 0.9 0.00 0.00 0.00 87 1014.8
20260904081232 79 276 0.9 0.9 0.00 0.00 0.00 87 1014.8
20260904081120 79 276 0.0 1.7 0.00 0.00 0.00 87 1014.8
20260904081028 79 276 0.0 1.7 0.00 0.00 0.00 87 1014.8
20260904080939 79 276 0.0 1.7 0.00 0.00 0.00 87 1014.7
20260904080824 79 276 0.0 1.7 0.00 0.00 0.00 87 1014.8
20260904080730 79 276 0.9 1.7 0.00 0.00 0.00 87 1014.7
20260904080656 79 276 0.0 1.7 0.00 0.00 0.00 86 1014.8
20260904080522 79 276 0.0 1.7 0.00 0.00 0.00 86 1014.7
20260904080429 79 276 0.9 1.7 0.00 0.00 0.00 86 1014.7
20260904080321 79 276 0.9 1.7 0.00 0.00 0.00 86 1014.7
20260904080251 79 276 1.7 1.7 0.00 0.00 0.00 86 1014.7
20260904080045 79 282 1.7 1.7 0.00 0.00 0.00 86 1014.6
20260904075930 79 279 1.7 1.7 0.00 0.00 0.00 86 1014.7
20260904075835 79 96 0.9 1.7 0.00 0.00 0.00 86 1014.6
20260904075727 79 96 1.7 1.7 0.00 0.00 0.00 86 1014.7
20260904075635 79 96 1.7 1.7 0.00 0.00 0.00 86 1014.7
20260904075521 79 96 0.9 1.7 0.00 0.00 0.00 86 1014.7
20260904075427 80 96 0.9 1.7 0.00 0.00 0.00 86 1014.7
20260904075334 80 96 0.9 1.7 0.00 0.00 0.00 86 1014.7
20260904075241 80 96 1.7 1.7 0.00 0.00 0.00 85 1014.6
20260904075132 80 96 1.7 1.7 0.00 0.00 0.00 85 1014.6
20260904075020 80 96 0.9 1.7 0.00 0.00 0.00 85 1014.6
20260904074928 80 96 0.9 1.7 0.00 0.00 0.00 85 1014.7
20260904074855 80 96 0.0 1.7 0.00 0.00 0.00 85 1014.7
20260904074826 80 96 0.0 0.0 0.00 0.00 0.00 85 1014.6
20260904074523 80 96 0.0 0.0 0.00 0.00 0.00 85 1014.6
20260904074450 80 96 0.0 0.0 0.00 0.00 0.00 85 1014.6
20260904074335 80 96 0.0 0.0 0.00 0.00 0.00 85 1014.6
20260904074221 80 96 0.0 0.0 0.00 0.00 0.00 85 1014.6
20260904074128 80 96 0.0 0.0 0.00 0.00 0.00 85 1014.6
20260904074018 80 96 0.0 0.0 0.00 0.00 0.00 85 1014.6
20260904073926 80 96 0.0 0.9 0.00 0.00 0.00 85 1014.6
20260904073832 80 96 0.0 0.9 0.00 0.00 0.00 84 1014.7
20260904073720 80 96 0.0 0.9 0.00 0.00 0.00 84 1014.7
20260904073626 80 96 0.0 0.9 0.00 0.00 0.00 84 1014.7
20260904073534 80 96 0.0 0.9 0.00 0.00 0.00 84 1014.7
20260904073446 80 96 0.0 0.9 0.00 0.00 0.00 83 1014.7
20260904073331 80 96 0.0 0.9 0.00 0.00 0.00 83 1014.8
20260904073301 80 96 0.0 1.7 0.00 0.00 0.00 84 1014.8
20260904073034 80 96 0.0 1.7 0.00 0.00 0.00 84 1014.7
20260904072920 80 96 0.0 1.7 0.00 0.00 0.00 84 1014.7
20260904072831 80 96 0.0 2.6 0.00 0.00 0.00 84 1014.7
20260904072717 80 96 0.0 2.6 0.00 0.00 0.00 84 1014.7
20260904072645 80 96 0.0 2.6 0.00 0.00 0.00 84 1014.7
20260904072530 80 96 0.0 2.6 0.00 0.00 0.00 84 1014.7
20260904072456 80 96 0.9 2.6 0.00 0.00 0.00 84 1014.7
20260904072321 80 92 0.9 2.6 0.00 0.00 0.00 84 1014.7
20260904072233 80 93 0.9 2.6 0.00 0.00 0.00 84 1014.7
20260904072139 80 63 0.9 2.6 0.00 0.00 0.00 84 1014.7
20260904072025 80 109 0.9 2.6 0.00 0.00 0.00 84 1014.7
20260904071932 80 115 0.9 1.7 0.00 0.00 0.00 83 1014.7
20260904071818 80 155 0.0 1.7 0.00 0.00 0.00 83 1014.7
20260904071753 80 155 0.0 1.7 0.00 0.00 0.00 83 1014.7
20260904071547 80 155 0.0 1.7 0.00 0.00 0.00 83 1014.6
20260904071432 80 155 0.0 1.7 0.00 0.00 0.00 83 1014.6
20260904071319 80 155 0.0 1.7 0.00 0.00 0.00 84 1014.7
20260904071226 80 155 0.9 1.7 0.00 0.00 0.00 84 1014.7
20260904071152 80 155 0.9 1.7 0.00 0.00 0.00 84 1014.6
20260904071017 80 155 0.9 2.6 0.00 0.00 0.00 84 1014.7
20260904070929 80 155 0.0 2.6 0.00 0.00 0.00 84 1014.7
20260904070836 80 155 0.0 2.6 0.00 0.00 0.00 84 1014.7
20260904070723 80 155 0.0 2.6 0.00 0.00 0.00 84 1014.7
20260904070630 80 155 0.9 2.6 0.00 0.00 0.00 84 1014.6
20260904070517 80 155 0.9 2.6 0.00 0.00 0.00 84 1014.7
20260904070424 80 155 1.7 2.6 0.00 0.00 0.00 85 1014.7
20260904070333 80 155 1.7 2.6 0.00 0.00 0.00 85 1014.6
20260904070304 80 153 1.7 2.6 0.00 0.00 0.00 85 1014.6
20260904070039 79 142 1.7 2.6 0.00 0.00 0.00 85 1014.7
20260904065924 79 144 1.7 2.6 0.00 0.00 0.00 85 1014.6
20260904065831 79 141 1.7 2.6 0.00 0.00 0.00 85 1014.7
20260904065723 79 123 1.7 2.6 0.00 0.00 0.00 85 1014.7
20260904065631 79 142 1.7 2.6 0.00 0.00 0.00 85 1014.7
20260904065518 79 147 1.7 2.6 0.00 0.00 0.00 85 1014.8
20260904065426 79 144 1.7 2.6 0.00 0.00 0.00 85 1014.8
20260904065354 79 142 1.7 1.7 0.00 0.00 0.00 85 1014.7
20260904065223 79 129 1.7 1.7 0.00 0.00 0.00 85 1014.8
20260904065129 79 134 1.7 1.7 0.00 0.00 0.00 85 1014.8
20260904065037 79 123 0.9 1.7 0.00 0.00 0.00 85 1014.9
20260904064923 79 84 0.0 1.7 0.00 0.00 0.00 85 1014.8
20260904064851 79 84 0.9 1.7 0.00 0.00 0.00 85 1014.8
20260904064827 79 45 0.9 1.7 0.00 0.00 0.00 85 1014.8
20260904064518 79 45 1.7 1.7 0.00 0.00 0.00 85 1014.8
20260904064425 79 360 1.7 1.7 0.00 0.00 0.00 85 1014.8
20260904064331 79 360 0.9 1.7 0.00 0.00 0.00 85 1014.8
20260904064217 79 360 0.9 1.7 0.00 0.00 0.00 85 1014.8
20260904064125 79 360 0.9 1.7 0.00 0.00 0.00 85 1014.8
20260904064036 79 360 0.9 1.7 0.00 0.00 0.00 85 1014.8
20260904063922 79 360 0.9 1.7 0.00 0.00 0.00 85 1014.8
20260904063829 79 360 0.9 1.7 0.00 0.00 0.00 85 1014.8
20260904063736 79 360 0.9 1.7 0.00 0.00 0.00 85 1014.8
20260904063622 79 360 0.0 0.9 0.00 0.00 0.00 84 1014.7
20260904063529 79 360 0.0 0.9 0.00 0.00 0.00 84 1014.7
20260904063439 79 360 0.0 0.0 0.00 0.00 0.00 84 1014.8
20260904063324 79 360 0.0 0.0 0.00 0.00 0.00 83 1014.8
20260904063254 79 360 0.0 0.0 0.00 0.00 0.00 83 1014.8
20260904063028 79 360 0.0 0.0 0.00 0.00 0.00 83 1014.8
20260904062955 79 360 0.0 0.0 0.00 0.00 0.00 83 1014.8
20260904062825 79 360 0.0 0.0 0.00 0.00 0.00 83 1014.8
20260904062732 79 360 0.0 0.0 0.00 0.00 0.00 83 1014.9
20260904062620 79 360 0.0 0.0 0.00 0.00 0.00 84 1014.8
20260904062528 79 360 0.0 0.0 0.00 0.00 0.00 84 1014.8
20260904062432 79 360 0.0 0.0 0.00 0.00 0.00 84 1014.9
20260904062323 79 360 0.0 0.0 0.00 0.00 0.00 84 1014.9
20260904062229 79 360 0.0 0.0 0.00 0.00 0.00 84 1014.8
20260904062118 79 360 0.0 0.0 0.00 0.00 0.00 83 1014.9
20260904062025 79 360 0.0 0.0 0.00 0.00 0.00 83 1014.9
20260904061951 80 360 0.0 0.0 0.00 0.00 0.00 83 1014.9
20260904061856 80 360 0.0 0.0 0.00 0.00 0.00 83 1014.9
20260904061810 80 360 0.0 0.0 0.00 0.00 0.00 83 1014.9
20260904061523 80 360 0.0 0.0 0.00 0.00 0.00 83 1014.9
20260904061431 80 360 0.0 0.9 0.00 0.00 0.00 84 1015.0
20260904061317 80 360 0.0 0.9 0.00 0.00 0.00 84 1014.9
20260904061223 80 360 0.0 1.7 0.00 0.00 0.00 83 1014.9
20260904061135 80 360 0.0 1.7 0.00 0.00 0.00 83 1015.0
20260904061021 80 360 0.0 1.7 0.00 0.00 0.00 83 1014.9
20260904060949 80 360 0.0 1.7 0.00 0.00 0.00 83 1015.0
20260904060835 80 360 0.0 1.7 0.00 0.00 0.00 83 1014.9
20260904060723 80 360 0.0 1.7 0.00 0.00 0.00 83 1014.9
20260904060650 80 360 0.0 1.7 0.00 0.00 0.00 83 1014.9
20260904060555 80 360 0.9 1.7 0.00 0.00 0.00 83 1014.9
20260904060444 80 360 0.9 1.7 0.00 0.00 0.00 82 1015.0
20260904060301 80 360 1.7 1.7 0.00 0.00 0.00 83 1014.9
20260904060034 80 360 0.9 1.7 0.00 0.00 0.00 83 1014.9
20260904055921 80 360 0.9 1.7 0.00 0.00 0.00 83 1015.0
20260904055832 80 360 0.0 1.7 0.00 0.00 0.00 83 1014.9
20260904055719 80 360 0.0 1.7 0.00 0.00 0.00 84 1014.9
20260904055628 80 360 0.0 1.7 0.00 0.00 0.00 84 1014.9
20260904055534 80 360 0.0 1.7 0.00 0.00 0.00 84 1015.0
20260904055421 80 360 0.0 1.7 0.00 0.00 0.00 84 1015.0
20260904055331 80 360 0.0 1.7 0.00 0.00 0.00 84 1015.0
20260904055217 80 360 0.0 1.7 0.00 0.00 0.00 84 1015.0
20260904055124 80 360 0.9 1.7 0.00 0.00 0.00 84 1015.0
20260904055032 80 360 0.9 1.7 0.00 0.00 0.00 84 1015.0
20260904054939 80 360 1.7 1.7 0.00 0.00 0.00 84 1014.9
20260904054825 80 360 0.9 1.7 0.00 0.00 0.00 84 1015.0
20260904054759 80 360 0.9 1.7 0.00 0.00 0.00 84 1015.0
20260904054534 80 360 0.0 1.7 0.00 0.00 0.00 84 1014.9
20260904054420 80 360 0.0 0.0 0.00 0.00 0.00 84 1014.9
20260904054327 80 360 0.0 0.9 0.00 0.00 0.00 84 1015.0
20260904054217 80 360 0.0 0.9 0.00 0.00 0.00 84 1014.9
20260904054124 80 360 0.0 0.9 0.00 0.00 0.00 84 1015.0
20260904054052 80 360 0.0 1.7 0.00 0.00 0.00 84 1015.0
20260904053919 80 360 0.0 1.7 0.00 0.00 0.00 84 1014.9
20260904053827 80 360 0.0 1.7 0.00 0.00 0.00 84 1015.0
20260904053754 80 360 0.0 1.7 0.00 0.00 0.00 84 1015.0
20260904053618 80 360 0.0 1.7 0.00 0.00 0.00 84 1015.0
20260904053546 80 360 0.0 1.7 0.00 0.00 0.00 83 1015.0
20260904053433 80 360 0.9 1.7 0.00 0.00 0.00 83 1015.0
20260904053340 80 360 0.9 1.7 0.00 0.00 0.00 83 1015.1
20260904053310 80 360 0.9 1.7 0.00 0.00 0.00 83 1015.1
20260904053022 80 360 0.9 1.7 0.00 0.00 0.00 83 1015.1
20260904052929 80 360 0.0 1.7 0.00 0.00 0.00 83 1015.1
20260904052820 80 360 0.0 1.7 0.00 0.00 0.00 83 1015.0
20260904052746 80 360 0.0 0.9 0.00 0.00 0.00 83 1015.0
20260904052632 80 360 0.0 0.0 0.00 0.00 0.00 82 1015.1
20260904052519 80 360 0.0 0.9 0.00 0.00 0.00 82 1015.1
20260904052427 80 360 0.0 0.9 0.00 0.00 0.00 82 1015.1
20260904052318 80 360 0.0 0.9 0.00 0.00 0.00 82 1015.1
20260904052225 81 360 0.0 0.9 0.00 0.00 0.00 82 1015.1
20260904052152 81 360 0.0 1.7 0.00 0.00 0.00 82 1015.1
20260904052036 81 360 0.0 1.7 0.00 0.00 0.00 82 1015.1
20260904051943 81 360 0.0 1.7 0.00 0.00 0.00 81 1015.1
20260904051850 81 360 0.0 1.7 0.00 0.00 0.00 81 1015.1
20260904051804 81 360 0.0 1.7 0.00 0.00 0.00 81 1015.1
20260904051537 81 360 0.0 1.7 0.00 0.00 0.00 81 1015.0
20260904051442 81 360 0.9 1.7 0.00 0.00 0.00 82 1015.0
20260904051328 81 360 0.9 1.7 0.00 0.00 0.00 82 1015.0
20260904051236 81 360 0.9 1.7 0.00 0.00 0.00 82 1015.0
20260904051143 81 360 0.9 1.7 0.00 0.00 0.00 81 1015.0
20260904051028 81 360 0.9 1.7 0.00 0.00 0.00 81 1015.1
20260904050919 81 360 0.9 1.7 0.00 0.00 0.00 82 1015.0
20260904050826 81 360 0.9 1.7 0.00 0.00 0.00 81 1015.1
20260904050733 81 360 0.9 1.7 0.00 0.00 0.00 80 1015.1
20260904050620 81 360 0.9 1.7 0.00 0.00 0.00 80 1015.2
20260904050547 81 360 0.9 1.7 0.00 0.00 0.00 81 1015.1
20260904050430 81 360 0.0 1.7 0.00 0.00 0.00 81 1015.1
20260904050342 81 360 0.9 1.7 0.00 0.00 0.00 81 1015.2
20260904050251 81 360 0.9 1.7 0.00 0.00 0.00 82 1015.1
20260904050024 81 360 0.9 1.7 0.00 0.00 0.00 82 1015.2
20260904045933 81 360 0.9 1.7 0.00 0.00 0.00 82 1015.2
20260904045819 81 360 0.0 0.9 0.00 0.00 0.00 82 1015.2
20260904045728 81 360 0.0 0.9 0.00 0.00 0.00 81 1015.2
20260904045636 81 360 0.0 0.0 0.00 0.00 0.00 81 1015.2
20260904045522 81 360 0.0 0.0 0.00 0.00 0.00 81 1015.2
20260904045430 81 360 0.0 0.0 0.00 0.00 0.00 81 1015.2
20260904045357 81 360 0.0 0.9 0.00 0.00 0.00 80 1015.2
20260904045225 81 360 0.0 0.9 0.00 0.00 0.00 79 1015.1
20260904045136 81 360 0.0 0.9 0.00 0.00 0.00 78 1015.1
20260904045041 81 360 0.0 0.9 0.00 0.00 0.00 79 1015.1
20260904044926 81 360 0.0 0.9 0.00 0.00 0.00 79 1015.2
20260904044804 81 360 0.0 0.9 0.00 0.00 0.00 79 1015.2
20260904044520 81 360 0.0 1.7 0.00 0.00 0.00 78 1015.2
20260904044427 81 360 0.9 1.7 0.00 0.00 0.00 78 1015.2
20260904044333 81 360 0.9 1.7 0.00 0.00 0.00 78 1015.2
20260904044218 81 360 0.9 1.7 0.00 0.00 0.00 78 1015.1
20260904044124 81 360 0.9 1.7 0.00 0.00 0.00 78 1015.1
20260904044036 81 360 0.9 1.7 0.00 0.00 0.00 78 1015.2
20260904043922 81 360 0.0 1.7 0.00 0.00 0.00 78 1015.2
20260904043828 81 360 0.0 1.7 0.00 0.00 0.00 78 1015.2
20260904043756 82 360 0.9 1.7 0.00 0.00 0.00 78 1015.2
20260904043622 82 360 0.9 1.7 0.00 0.00 0.00 78 1015.1
20260904043526 82 360 0.9 1.7 0.00 0.00 0.00 78 1015.1
20260904043435 82 360 0.0 1.7 0.00 0.00 0.00 78 1015.1
20260904043323 82 360 0.0 1.7 0.00 0.00 0.00 78 1015.1
20260904043253 82 360 0.0 1.7 0.00 0.00 0.00 78 1015.1
20260904043046 82 360 0.0 1.7 0.00 0.00 0.00 77 1015.2
20260904042952 82 360 0.0 1.7 0.00 0.00 0.00 77 1015.2
20260904042824 82 360 0.0 1.7 0.00 0.00 0.00 77 1015.2
20260904042729 82 360 0.0 1.7 0.00 0.00 0.00 77 1015.1
20260904042635 82 360 0.9 1.7 0.00 0.00 0.00 77 1015.2
20260904042523 82 360 0.9 1.7 0.00 0.00 0.00 77 1015.3
20260904042452 82 360 0.9 1.7 0.00 0.00 0.00 77 1015.2
20260904042317 82 360 0.9 1.7 0.00 0.00 0.00 77 1015.3
20260904042228 82 360 0.9 1.7 0.00 0.00 0.00 77 1015.2
20260904042156 82 360 0.9 1.7 0.00 0.00 0.00 76 1015.2
20260904042020 82 13 0.9 1.7 0.00 0.00 0.00 76 1015.3
20260904041927 82 13 0.9 1.7 0.00 0.00 0.00 76 1015.3
20260904041835 82 13 0.9 1.7 0.00 0.00 0.00 76 1015.3
20260904041804 82 13 0.9 1.7 0.00 0.00 0.00 76 1015.3
20260904041522 83 13 0.0 0.9 0.00 0.00 0.00 76 1015.2
20260904041429 83 13 0.0 0.9 0.00 0.00 0.00 76 1015.2
20260904041336 83 13 0.0 0.9 0.00 0.00 0.00 76 1015.2
20260904041243 83 13 0.0 0.9 0.00 0.00 0.00 76 1015.2
20260904041129 83 13 0.0 0.9 0.00 0.00 0.00 76 1015.2
20260904041019 83 13 0.9 0.9 0.00 0.00 0.00 76 1015.2
20260904040925 83 13 0.0 0.9 0.00 0.00 0.00 76 1015.2
20260904040832 83 13 0.0 0.9 0.00 0.00 0.00 77 1015.3
20260904040719 83 13 0.0 0.9 0.00 0.00 0.00 76 1015.3
20260904040625 83 13 0.0 0.9 0.00 0.00 0.00 76 1015.3
20260904040531 83 13 0.0 0.9 0.00 0.00 0.00 76 1015.3
20260904040421 83 13 0.0 0.9 0.00 0.00 0.00 76 1015.2
20260904040348 83 13 0.0 0.9 0.00 0.00 0.00 76 1015.2
20260904040318 83 13 0.0 0.9 0.00 0.00 0.00 75 1015.2
20260904040032 83 13 0.0 0.9 0.00 0.00 0.00 76 1015.3
20260904035958 83 13 0.0 0.9 0.00 0.00 0.00 76 1015.3
20260904035823 84 13 0.0 0.9 0.00 0.00 0.00 76 1015.3
20260904035754 84 13 0.0 1.7 0.00 0.00 0.00 76 1015.3
20260904035639 84 13 0.9 1.7 0.00 0.00 0.00 76 1015.3
20260904035543 84 13 0.0 1.7 0.00 0.00 0.00 76 1015.3
20260904035428 84 13 0.0 1.7 0.00 0.00 0.00 76 1015.3
20260904035335 84 16 0.0 1.7 0.00 0.00 0.00 76 1015.3
20260904035222 84 27 0.0 1.7 0.00 0.00 0.00 76 1015.3
20260904035128 84 125 0.0 1.7 0.00 0.00 0.00 76 1015.3
20260904035018 84 125 0.0 1.7 0.00 0.00 0.00 75 1015.3
20260904034925 84 125 0.0 1.7 0.00 0.00 0.00 75 1015.4
20260904034833 84 125 0.0 0.9 0.00 0.00 0.00 74 1015.4
20260904034802 84 125 0.0 0.9 0.00 0.00 0.00 74 1015.4
20260904034519 84 125 0.0 0.9 0.00 0.00 0.00 74 1015.3
20260904034426 85 125 0.0 0.9 0.00 0.00 0.00 74 1015.4
20260904034333 85 125 0.0 0.9 0.00 0.00 0.00 74 1015.4
20260904034221 85 125 0.0 0.9 0.00 0.00 0.00 73 1015.4
20260904034129 85 125 0.0 0.9 0.00 0.00 0.00 73 1015.5
20260904034019 85 125 0.0 0.9 0.00 0.00 0.00 72 1015.5
20260904033925 85 125 0.0 0.9 0.00 0.00 0.00 72 1015.5
20260904033833 85 125 0.0 0.9 0.00 0.00 0.00 72 1015.5
20260904033721 85 125 0.0 0.9 0.00 0.00 0.00 71 1015.4
20260904033648 85 125 0.0 0.9 0.00 0.00 0.00 71 1015.5
20260904033534 85 125 0.0 0.0 0.00 0.00 0.00 72 1015.5
20260904033442 85 125 0.0 0.0 0.00 0.00 0.00 72 1015.5
20260904033353 85 125 0.0 0.0 0.00 0.00 0.00 73 1015.4
20260904033303 85 125 0.0 0.0 0.00 0.00 0.00 73 1015.4
20260904033035 85 125 0.0 0.0 0.00 0.00 0.00 72 1015.5
20260904032922 85 125 0.0 0.0 0.00 0.00 0.00 72 1015.5
20260904032848 85 125 0.0 0.0 0.00 0.00 0.00 72 1015.5
20260904032717 85 125 0.0 1.7 0.00 0.00 0.00 72 1015.5
20260904032644 85 125 0.0 1.7 0.00 0.00 0.00 72 1015.6
20260904032531 85 125 0.0 1.7 0.00 0.00 0.00 72 1015.6
20260904032438 85 125 0.0 1.7 0.00 0.00 0.00 71 1015.5
20260904032325 85 125 0.0 1.7 0.00 0.00 0.00 70 1015.5
20260904032232 86 125 0.0 1.7 0.00 0.00 0.00 70 1015.5
20260904032123 86 126 0.0 1.7 0.00 0.00 0.00 70 1015.5
20260904032029 86 125 0.0 1.7 0.00 0.00 0.00 70 1015.5
20260904031917 86 125 0.9 1.7 0.00 0.00 0.00 70 1015.5
20260904031824 86 125 0.9 1.7 0.00 0.00 0.00 70 1015.6
20260904031753 85 125 0.9 1.7 0.00 0.00 0.00 70 1015.6
20260904031531 86 125 0.9 1.7 0.00 0.00 0.00 70 1015.6
20260904031417 86 125 0.9 1.7 0.00 0.00 0.00 70 1015.4
20260904031345 86 125 0.9 1.7 0.00 0.00 0.00 70 1015.5
20260904031230 86 125 0.9 1.7 0.00 0.00 0.00 71 1015.6
20260904031117 86 125 0.9 1.7 0.00 0.00 0.00 70 1015.5
20260904031044 86 125 0.9 1.7 0.00 0.00 0.00 71 1015.5
20260904030932 86 125 0.9 1.7 0.00 0.00 0.00 70 1015.6
20260904030821 86 125 0.9 1.7 0.00 0.00 0.00 70 1015.6
20260904030749 86 125 0.9 1.7 0.00 0.00 0.00 70 1015.5
20260904030655 86 125 0.9 2.6 0.00 0.00 0.00 70 1015.6
20260904030521 86 125 0.9 2.6 0.00 0.00 0.00 71 1015.6
20260904030428 86 125 0.9 2.6 0.00 0.00 0.00 71 1015.6
20260904030334 86 125 0.9 2.6 0.00 0.00 0.00 70 1015.6
20260904030308 86 125 0.9 2.6 0.00 0.00 0.00 71 1015.6
20260904030020 86 103 1.7 2.6 0.00 0.00 0.00 70 1015.7
20260904025927 86 120 1.7 2.6 0.00 0.00 0.00 70 1015.6
20260904025834 86 120 1.7 2.6 0.00 0.00 0.00 71 1015.5
20260904025724 86 114 1.7 2.6 0.00 0.00 0.00 71 1015.6
20260904025631 86 114 1.7 2.6 0.00 0.00 0.00 70 1015.6
20260904025536 86 114 0.9 2.6 0.00 0.00 0.00 71 1015.5
20260904025422 86 111 0.9 2.6 0.00 0.00 0.00 70 1015.6
20260904025329 86 107 0.9 2.6 0.00 0.00 0.00 71 1015.5
20260904025218 86 97 1.7 2.6 0.00 0.00 0.00 71 1015.5
20260904025148 86 109 1.7 2.6 0.00 0.00 0.00 70 1015.5
20260904025033 86 94 1.7 2.6 0.00 0.00 0.00 70 1015.5
20260904024918 86 110 0.9 2.6 0.00 0.00 0.00 71 1015.6
20260904024826 86 112 0.9 2.6 0.00 0.00 0.00 70 1015.5
20260904024757 86 90 0.9 2.6 0.00 0.00 0.00 70 1015.5
20260904024533 86 92 0.9 2.6 0.00 0.00 0.00 71 1015.6
20260904024420 86 102 1.7 2.6 0.00 0.00 0.00 71 1015.5
20260904024327 86 94 1.7 2.6 0.00 0.00 0.00 71 1015.6
20260904024253 86 82 1.7 2.6 0.00 0.00 0.00 71 1015.5
20260904024118 86 120 1.7 2.6 0.00 0.00 0.00 71 1015.6
20260904024025 86 113 0.9 1.7 0.00 0.00 0.00 71 1015.5
20260904023934 87 119 0.9 1.7 0.00 0.00 0.00 71 1015.5
20260904023820 87 119 0.9 1.7 0.00 0.00 0.00 71 1015.5
20260904023725 87 103 0.9 1.7 0.00 0.00 0.00 70 1015.6
20260904023632 87 103 0.9 1.7 0.00 0.00 0.00 70 1015.6
20260904023540 87 98 0.0 1.7 0.00 0.00 0.00 69 1015.5
20260904023445 87 98 0.0 2.6 0.00 0.00 0.00 70 1015.6
20260904023412 87 98 0.9 2.6 0.00 0.00 0.00 70 1015.5
20260904023325 87 98 0.9 2.6 0.00 0.00 0.00 70 1015.5
20260904023036 87 105 0.9 2.6 0.00 0.00 0.00 70 1015.5
20260904022922 87 119 0.9 3.5 0.00 0.00 0.00 70 1015.5
20260904022829 87 96 0.9 3.5 0.00 0.00 0.00 70 1015.5
20260904022719 87 78 1.7 3.5 0.00 0.00 0.00 69 1015.5
20260904022627 87 93 1.7 3.5 0.00 0.00 0.00 69 1015.5
20260904022534 87 111 1.7 3.5 0.00 0.00 0.00 69 1015.5
20260904022420 88 101 1.7 3.5 0.00 0.00 0.00 69 1015.5
20260904022327 88 101 1.7 3.5 0.00 0.00 0.00 69 1015.5
20260904022235 88 113 2.6 3.5 0.00 0.00 0.00 69 1015.4
20260904022127 88 103 1.7 3.5 0.00 0.00 0.00 69 1015.5
20260904022034 88 103 1.7 3.5 0.00 0.00 0.00 69 1015.5
20260904021939 88 102 1.7 3.5 0.00 0.00 0.00 69 1015.4
20260904021824 88 107 1.7 3.5 0.00 0.00 0.00 69 1015.4
20260904021756 88 106 1.7 3.5 0.00 0.00 0.00 68 1015.4
20260904021552 88 105 1.7 3.5 0.00 0.00 0.00 68 1015.3
20260904021419 88 92 2.6 3.5 0.00 0.00 0.00 67 1015.3
20260904021326 88 111 2.6 3.5 0.00 0.00 0.00 68 1015.3
20260904021234 88 115 2.6 3.5 0.00 0.00 0.00 67 1015.3
20260904021140 88 128 2.6 3.5 0.00 0.00 0.00 68 1015.3
20260904021025 88 144 2.6 3.5 0.00 0.00 0.00 68 1015.2
20260904020936 88 152 1.7 3.5 0.00 0.00 0.00 68 1015.2
20260904020823 88 157 1.7 3.5 0.00 0.00 0.00 68 1015.3
20260904020731 88 153 1.7 3.5 0.00 0.00 0.00 68 1015.3
20260904020617 88 126 1.7 4.3 0.00 0.00 0.00 68 1015.3
20260904020525 88 132 1.7 4.3 0.00 0.00 0.00 68 1015.3
20260904020432 88 146 1.7 4.3 0.00 0.00 0.00 68 1015.3
20260904020344 88 146 1.7 4.3 0.00 0.00 0.00 68 1015.3
20260904020313 88 139 1.7 2.6 0.00 0.00 0.00 68 1015.3
20260904020046 88 137 1.7 2.6 0.00 0.00 0.00 68 1015.3
20260904015930 88 153 1.7 2.6 0.00 0.00 0.00 68 1015.3
20260904015817 88 115 1.7 2.6 0.00 0.00 0.00 68 1015.3
20260904015729 88 122 1.7 2.6 0.00 0.00 0.00 68 1015.2
20260904015657 88 115 0.9 2.6 0.00 0.00 0.00 67 1015.2
20260904015543 88 146 0.9 2.6 0.00 0.00 0.00 68 1015.3
20260904015429 88 146 1.7 2.6 0.00 0.00 0.00 68 1015.2
20260904015334 88 146 1.7 2.6 0.00 0.00 0.00 67 1015.1
20260904015223 88 146 0.9 2.6 0.00 0.00 0.00 67 1015.2
20260904015128 89 146 0.9 2.6 0.00 0.00 0.00 68 1015.2
20260904015019 89 146 1.7 2.6 0.00 0.00 0.00 68 1015.2
20260904014927 89 157 1.7 2.6 0.00 0.00 0.00 68 1015.2
20260904014833 89 153 1.7 2.6 0.00 0.00 0.00 68 1015.1
20260904014804 89 175 1.7 2.6 0.00 0.00 0.00 68 1015.1
20260904014520 89 134 0.9 2.6 0.00 0.00 0.00 68 1015.1
20260904014427 89 192 0.9 4.3 0.00 0.00 0.00 68 1015.2
20260904014333 89 196 1.7 4.3 0.00 0.00 0.00 68 1015.1
20260904014220 89 217 0.9 4.3 0.00 0.00 0.00 68 1015.1
20260904014127 89 230 0.9 4.3 0.00 0.00 0.00 68 1015.1
20260904014019 89 189 1.7 4.3 0.00 0.00 0.00 68 1015.1
20260904013926 89 192 1.7 4.3 0.00 0.00 0.00 68 1015.0
20260904013832 89 198 0.9 4.3 0.00 0.00 0.00 67 1015.1
20260904013718 89 163 1.7 4.3 0.00 0.00 0.00 67 1015.1
20260904013625 89 163 1.7 4.3 0.00 0.00 0.00 68 1015.0
20260904013530 89 149 2.6 4.3 0.00 0.00 0.00 68 1015.1
20260904013443 89 142 1.7 3.5 0.00 0.00 0.00 68 1015.1
20260904013329 89 123 1.7 3.5 0.00 0.00 0.00 67 1015.0
20260904013259 89 130 0.9 3.5 0.00 0.00 0.00 67 1015.0
20260904013032 89 157 1.7 3.5 0.00 0.00 0.00 67 1015.0
20260904012918 89 219 1.7 3.5 0.00 0.00 0.00 67 1015.0
20260904012829 89 196 1.7 3.5 0.00 0.00 0.00 67 1015.0
20260904012737 89 151 1.7 3.5 0.00 0.00 0.00 67 1015.0
20260904012624 89 116 2.6 3.5 0.00 0.00 0.00 67 1014.9
20260904012532 89 144 2.6 3.5 0.00 0.00 0.00 67 1014.9
20260904012418 89 143 1.7 4.3 0.00 0.00 0.00 67 1014.9
20260904012330 89 180 1.7 4.3 0.00 0.00 0.00 67 1014.9
20260904012217 89 173 2.6 6.1 0.00 0.00 0.00 67 1014.9
20260904012144 89 123 2.6 6.1 0.00 0.00 0.00 67 1014.9
20260904012030 89 134 1.7 6.1 0.00 0.00 0.00 67 1014.9
20260904011936 89 134 1.7 6.1 0.00 0.00 0.00 67 1014.9
20260904011842 89 123 2.6 6.1 0.00 0.00 0.00 67 1015.0
20260904011755 89 129 2.6 6.1 0.00 0.00 0.00 67 1015.0
20260904011548 89 141 3.5 6.1 0.00 0.00 0.00 67 1014.8
20260904011434 89 115 3.5 6.1 0.00 0.00 0.00 67 1014.9
20260904011321 89 142 2.6 6.1 0.00 0.00 0.00 67 1014.9
20260904011228 89 185 2.6 4.3 0.00 0.00 0.00 67 1015.0
20260904011119 89 161 2.6 4.3 0.00 0.00 0.00 67 1014.9
20260904011025 89 176 2.6 4.3 0.00 0.00 0.00 67 1014.9
20260904010931 89 165 1.7 4.3 0.00 0.00 0.00 68 1014.8
20260904010838 89 148 1.7 4.3 0.00 0.00 0.00 67 1015.0
20260904010723 89 133 1.7 4.3 0.00 0.00 0.00 67 1014.8
20260904010632 89 111 1.7 4.3 0.00 0.00 0.00 67 1014.8
20260904010523 89 126 1.7 4.3 0.00 0.00 0.00 67 1014.7
20260904010430 89 78 1.7 4.3 0.00 0.00 0.00 67 1014.8
20260904010337 89 120 1.7 4.3 0.00 0.00 0.00 67 1014.8
20260904010309 89 115 1.7 4.3 0.00 0.00 0.00 67 1014.8
20260904010024 89 58 1.7 4.3 0.00 0.00 0.00 68 1014.7
20260904005935 89 89 1.7 4.3 0.00 0.00 0.00 67 1014.6
20260904005822 89 149 2.6 4.3 0.00 0.00 0.00 67 1014.6
20260904005730 89 142 2.6 4.3 0.00 0.00 0.00 67 1014.6
20260904005617 89 140 2.6 4.3 0.00 0.00 0.00 67 1014.6
20260904005523 89 138 2.6 3.5 0.00 0.00 0.00 67 1014.6
20260904005436 89 134 2.6 3.5 0.00 0.00 0.00 67 1014.5
20260904005324 89 126 2.6 3.5 0.00 0.00 0.00 67 1014.6
20260904005232 89 130 0.9 2.6 0.00 0.00 0.00 66 1014.6
20260904005118 89 80 0.0 1.7 0.00 0.00 0.00 66 1014.6
20260904005027 89 24 0.0 1.7 0.00 0.00 0.00 66 1014.5
20260904004917 89 24 0.0 2.6 0.00 0.00 0.00 66 1014.5
20260904004824 89 24 0.0 2.6 0.00 0.00 0.00 66 1014.4
20260904004756 89 24 0.0 2.6 0.00 0.00 0.00 66 1014.4
20260904004528 90 24 0.9 2.6 0.00 0.00 0.00 65 1014.4
20260904004456 90 24 1.7 2.6 0.00 0.00 0.00 65 1014.5
20260904004324 90 24 1.7 2.6 0.00 0.00 0.00 64 1014.5
20260904004232 90 24 1.7 2.6 0.00 0.00 0.00 64 1014.5
20260904004120 90 5 1.7 2.6 0.00 0.00 0.00 63 1014.4
20260904004027 90 5 1.7 1.7 0.00 0.00 0.00 63 1014.5
20260904003933 90 5 0.9 1.7 0.00 0.00 0.00 64 1014.4
20260904003821 90 5 0.9 1.7 0.00 0.00 0.00 65 1014.5
20260904003752 90 5 0.9 0.9 0.00 0.00 0.00 64 1014.4
20260904003618 90 5 0.9 0.9 0.00 0.00 0.00 64 1014.4
20260904003525 90 5 0.0 1.7 0.00 0.00 0.00 64 1014.4
20260904003433 90 5 0.0 1.7 0.00 0.00 0.00 63 1014.4
20260904003341 91 5 0.0 1.7 0.00 0.00 0.00 63 1014.4
20260904003255 91 5 0.0 1.7 0.00 0.00 0.00 63 1014.4
20260904003026 91 5 0.0 1.7 0.00 0.00 0.00 63 1014.3
20260904002955 91 5 0.0 1.7 0.00 0.00 0.00 63 1014.4
20260904002822 91 5 0.9 1.7 0.00 0.00 0.00 64 1014.4
20260904002728 91 5 0.9 1.7 0.00 0.00 0.00 64 1014.4
20260904002634 91 5 0.9 0.9 0.00 0.00 0.00 64 1014.3
20260904002525 91 5 0.0 1.7 0.00 0.00 0.00 64 1014.4
20260904002452 91 5 0.0 1.7 0.00 0.00 0.00 63 1014.3
20260904002318 91 5 0.0 2.6 0.00 0.00 0.00 61 1014.3
20260904002226 92 5 0.0 2.6 0.00 0.00 0.00 62 1014.3
20260904002132 92 5 0.0 2.6 0.00 0.00 0.00 62 1014.2
20260904002019 92 5 0.0 2.6 0.00 0.00 0.00 62 1014.2
20260904001930 92 5 0.9 2.6 0.00 0.00 0.00 62 1014.2
20260904001837 92 5 0.9 2.6 0.00 0.00 0.00 62 1014.1
20260904001808 92 5 1.7 2.6 0.00 0.00 0.00 59 1014.1
20260904001520 92 5 1.7 2.6 0.00 0.00 0.00 60 1014.2
20260904001430 92 5 1.7 2.6 0.00 0.00 0.00 61 1014.1
20260904001336 92 19 1.7 2.6 0.00 0.00 0.00 61 1014.2
20260904001223 92 36 0.9 1.7 0.00 0.00 0.00 60 1014.2
20260904001130 92 36 0.9 1.7 0.00 0.00 0.00 60 1014.3
20260904001057 93 36 0.9 1.7 0.00 0.00 0.00 59 1014.3
20260904000924 93 36 0.9 2.6 0.00 0.00 0.00 59 1014.3
20260904000836 93 36 0.9 2.6 0.00 0.00 0.00 59 1014.3
20260904000724 93 36 0.9 2.6 0.00 0.00 0.00 58 1014.2
20260904000631 93 36 1.7 2.6 0.00 0.00 0.00 58 1014.2
20260904000538 93 36 1.7 2.6 0.00 0.00 0.00 57 1014.2
20260904000422 93 36 0.9 2.6 0.00 0.00 0.00 58 1014.5
20260904000329 93 36 1.7 3.5 0.00 0.00 0.00 58 1014.0
20260904000303 93 36 1.7 3.5 0.00 0.00 0.00 57 1014.0
20260904000036 93 43 1.7 3.5 0.00 0.00 0.00 57 1014.1
20260903235923 93 43 1.7 3.5 0.00 0.00 0.00 57 1014.1
20260903235831 93 43 1.7 3.5 0.00 0.00 0.00 57 1014.1
20260903235742 93 41 0.9 3.5 0.00 0.00 0.00 57 1014.1
20260903235627 93 79 0.9 3.5 0.00 0.00 0.00 57 1014.1
20260903235533 93 100 1.7 3.5 0.00 0.00 0.00 58 1014.1
20260903235421 94 87 1.7 3.5 0.00 0.00 0.00 57 1014.1
20260903235327 94 134 1.7 2.6 0.00 0.00 0.00 56 1014.1
20260903235235 94 127 0.9 2.6 0.00 0.00 0.00 56 1014.1
20260903235125 94 128 0.9 2.6 0.00 0.00 0.00 57 1014.1
20260903235032 94 125 1.7 2.6 0.00 0.00 0.00 56 1014.1
20260903234920 94 111 0.9 2.6 0.00 0.00 0.00 56 1014.1
20260903234827 94 67 0.9 2.6 0.00 0.00 0.00 55 1014.1
20260903234802 94 69 0.9 2.6 0.00 0.00 0.00 55 1014.1
20260903234535 94 84 0.9 2.6 0.00 0.00 0.00 55 1014.0
20260903234420 94 115 0.9 1.7 0.00 0.00 0.00 55 1014.0
20260903234328 94 59 0.9 1.7 0.00 0.00 0.00 55 1014.0
20260903234235 94 58 0.9 1.7 0.00 0.00 0.00 54 1014.0
20260903234142 95 355 0.9 1.7 0.00 0.00 0.00 55 1014.0
20260903234032 95 355 0.0 1.7 0.00 0.00 0.00 54 1013.9
20260903233938 95 286 0.0 1.7 0.00 0.00 0.00 54 1014.0
20260903233824 95 286 0.0 1.7 0.00 0.00 0.00 54 1014.0
20260903233729 95 286 0.0 1.7 0.00 0.00 0.00 54 1014.0
20260903233617 95 286 0.0 1.7 0.00 0.00 0.00 54 1014.0
20260903233525 95 286 0.9 1.7 0.00 0.00 0.00 55 1014.0
20260903233437 95 286 0.9 1.7 0.00 0.00 0.00 55 1014.0
20260903233405 95 286 0.9 1.7 0.00 0.00 0.00 55 1014.0
20260903233253 95 286 0.9 2.6 0.00 0.00 0.00 54 1014.0
20260903233026 95 270 0.9 2.6 0.00 0.00 0.00 54 1014.0
20260903232932 96 270 0.9 2.6 0.00 0.00 0.00 54 1013.9
20260903232838 96 270 0.9 3.5 0.00 0.00 0.00 54 1014.0
20260903232729 96 270 0.0 3.5 0.00 0.00 0.00 55 1014.0
20260903232635 96 270 0.9 3.5 0.00 0.00 0.00 55 1014.1
20260903232521 96 270 0.9 3.5 0.00 0.00 0.00 55 1014.0
20260903232449 96 270 1.7 3.5 0.00 0.00 0.00 55 1014.0
20260903232335 96 269 1.7 3.5 0.00 0.00 0.00 55 1014.0
20260903232241 96 279 1.7 3.5 0.00 0.00 0.00 56 1014.1
20260903232131 96 281 1.7 3.5 0.00 0.00 0.00 55 1014.0
20260903232018 96 294 1.7 3.5 0.00 0.00 0.00 51 1014.0
20260903231925 96 188 2.6 3.5 0.00 0.00 0.00 50 1014.0
20260903231831 96 224 1.7 3.5 0.00 0.00 0.00 51 1014.0
20260903231802 96 215 1.7 3.5 0.00 0.00 0.00 51 1014.0
20260903231520 96 217 0.9 1.7 0.00 0.00 0.00 50 1014.0
20260903231426 96 216 0.9 1.7 0.00 0.00 0.00 50 1014.1
20260903231334 96 179 0.9 1.7 0.00 0.00 0.00 51 1014.0
20260903231221 96 36 0.9 1.7 0.00 0.00 0.00 50 1014.1
20260903231127 96 36 0.9 1.7 0.00 0.00 0.00 50 1014.0
20260903231019 96 59 0.0 1.7 0.00 0.00 0.00 50 1014.0
20260903230945 96 121 0.0 2.6 0.00 0.00 0.00 50 1014.0
20260903230831 96 121 0.0 2.6 0.00 0.00 0.00 50 1014.0
20260903230738 96 121 0.0 2.6 0.00 0.00 0.00 49 1013.9
20260903230624 96 121 0.0 2.6 0.00 0.00 0.00 49 1014.0
20260903230530 96 121 0.0 2.6 0.00 0.00 0.00 49 1014.0
20260903230456 96 121 0.0 2.6 0.00 0.00 0.00 49 1014.0
20260903230327 96 121 0.9 2.6 0.00 0.00 0.00 49 1013.9
20260903230257 96 121 1.7 3.5 0.00 0.00 0.00 50 1013.9
20260903230030 96 121 0.9 3.5 0.00 0.00 0.00 50 1014.0
20260903225937 96 105 0.9 3.5 0.00 0.00 0.00 50 1014.0
20260903225826 97 105 1.7 3.5 0.00 0.00 0.00 49 1014.1
20260903225732 97 134 1.7 3.5 0.00 0.00 0.00 49 1014.1
20260903225619 97 120 1.7 3.5 0.00 0.00 0.00 50 1014.0
20260903225528 97 149 1.7 3.5 0.00 0.00 0.00 49 1014.0
20260903225454 97 111 1.7 3.5 0.00 0.00 0.00 49 1014.0
20260903225320 97 117 1.7 3.5 0.00 0.00 0.00 49 1014.1
20260903225248 97 115 1.7 3.5 0.00 0.00 0.00 48 1014.0
20260903225137 97 115 1.7 3.5 0.00 0.00 0.00 49 1014.0
20260903225022 97 142 0.9 3.5 0.00 0.00 0.00 49 1014.0
20260903224930 97 119 1.7 3.5 0.00 0.00 0.00 50 1014.0
20260903224817 97 132 1.7 3.5 0.00 0.00 0.00 49 1014.0
20260903224752 97 84 2.6 3.5 0.00 0.00 0.00 49 1014.0
20260903224526 97 61 2.6 3.5 0.00 0.00 0.00 49 1013.9
20260903224433 97 57 2.6 3.5 0.00 0.00 0.00 50 1013.9
20260903224319 97 81 1.7 3.5 0.00 0.00 0.00 50 1013.9
20260903224246 97 40 1.7 3.5 0.00 0.00 0.00 50 1013.9
20260903224133 97 79 2.6 3.5 0.00 0.00 0.00 49 1013.9
20260903224044 97 99 2.6 3.5 0.00 0.00 0.00 50 1013.9
20260903223930 97 36 1.7 3.5 0.00 0.00 0.00 49 1013.8
20260903223835 96 63 1.7 3.5 0.00 0.00 0.00 50 1013.9
20260903223723 96 54 1.7 4.3 0.00 0.00 0.00 50 1013.9
20260903223629 96 59 1.7 4.3 0.00 0.00 0.00 50 1013.9
20260903223536 96 54 2.6 4.3 0.00 0.00 0.00 50 1013.9
20260903223427 96 55 1.7 4.3 0.00 0.00 0.00 50 1013.9
20260903223334 96 59 1.7 4.3 0.00 0.00 0.00 51 1013.8
20260903223304 96 58 1.7 4.3 0.00 0.00 0.00 49 1013.8
20260903223017 96 81 2.6 4.3 0.00 0.00 0.00 50 1013.8
20260903222924 96 78 3.5 4.3 0.00 0.00 0.00 49 1013.8
20260903222834 96 68 2.6 4.3 0.00 0.00 0.00 50 1013.8
20260903222720 96 72 1.7 4.3 0.00 0.00 0.00 51 1013.7
20260903222626 96 58 1.7 4.3 0.00 0.00 0.00 50 1013.7
20260903222533 96 110 2.6 5.2 0.00 0.00 0.00 50 1013.8
20260903222420 95 72 2.6 5.2 0.00 0.00 0.00 51 1013.8
20260903222331 95 74 1.7 5.2 0.00 0.00 0.00 52 1013.8
20260903222239 95 5 2.6 7.0 0.00 0.00 0.00 52 1013.8
20260903222123 95 113 2.6 7.0 0.00 0.00 0.00 51 1013.9
20260903222029 95 123 2.6 7.0 0.00 0.00 0.00 53 1013.8
20260903221936 95 69 2.6 7.0 0.00 0.00 0.00 52 1013.8
20260903221822 95 76 3.5 7.0 0.00 0.00 0.00 51 1013.8
20260903221756 95 82 3.5 7.0 0.00 0.00 0.00 52 1013.8
20260903221528 96 131 3.5 7.0 0.00 0.00 0.00 52 1013.9
20260903221435 96 105 3.5 7.0 0.00 0.00 0.00 52 1013.9
20260903221322 96 134 3.5 7.0 0.00 0.00 0.00 51 1013.9
20260903221229 96 111 3.5 7.0 0.00 0.00 0.00 51 1013.8
20260903221121 96 109 2.6 7.0 0.00 0.00 0.00 53 1013.8
20260903221028 96 96 3.5 7.0 0.00 0.00 0.00 51 1013.8
20260903220934 96 80 3.5 7.0 0.00 0.00 0.00 51 1013.8
20260903220820 96 115 4.3 7.0 0.00 0.00 0.00 52 1013.8
20260903220748 96 109 5.2 7.0 0.00 0.00 0.00 51 1013.8
20260903220634 96 120 4.3 7.0 0.00 0.00 0.00 53 1013.8
20260903220524 96 126 3.5 6.1 0.00 0.00 0.00 51 1013.8
20260903220430 96 82 2.6 6.1 0.00 0.00 0.00 51 1013.8
20260903220359 96 106 2.6 6.1 0.00 0.00 0.00 52 1013.8
20260903220330 96 84 2.6 5.2 0.00 0.00 0.00 52 1013.9
20260903220042 96 114 4.3 7.0 0.00 0.00 0.00 51 1013.8
20260903215931 96 103 3.5 7.8 0.00 0.00 0.00 51 1013.8
20260903215818 96 100 1.7 7.8 0.00 0.00 0.00 52 1013.7
20260903215723 96 119 1.7 7.8 0.00 0.00 0.00 53 1013.7
20260903215631 95 72 2.6 7.8 0.00 0.00 0.00 52 1013.7
20260903215518 95 88 3.5 7.8 0.00 0.00 0.00 51 1013.7
20260903215425 95 82 3.5 7.8 0.00 0.00 0.00 51 1013.7
20260903215334 95 84 3.5 7.8 0.00 0.00 0.00 50 1013.7
20260903215242 95 96 4.3 7.8 0.00 0.00 0.00 51 1013.6
20260903215128 95 36 4.3 7.8 0.00 0.00 0.00 50 1013.7
20260903215034 95 78 4.3 7.8 0.00 0.00 0.00 51 1013.6
20260903214920 95 113 4.3 7.8 0.00 0.00 0.00 52 1013.7
20260903214826 95 114 5.2 7.8 0.00 0.00 0.00 52 1013.7
20260903214801 95 79 4.3 7.8 0.00 0.00 0.00 51 1013.7
20260903214534 95 49 2.6 7.8 0.00 0.00 0.00 51 1013.7
20260903214440 95 11 2.6 9.6 0.00 0.00 0.00 51 1013.7
20260903214326 95 42 2.6 9.6 0.00 0.00 0.00 52 1013.7
20260903214251 95 80 3.5 9.6 0.00 0.00 0.00 52 1013.7
20260903214121 95 67 5.2 9.6 0.00 0.00 0.00 52 1013.8
20260903214048 95 72 5.2 9.6 0.00 0.00 0.00 51 1013.8
20260903213935 95 64 4.3 9.6 0.00 0.00 0.00 51 1013.8
20260903213821 95 66 3.5 9.6 0.00 0.00 0.00 51 1013.9
20260903213727 95 61 4.3 9.6 0.00 0.00 0.00 51 1013.9
20260903213655 95 20 5.2 9.6 0.00 0.00 0.00 50 1013.8
20260903213526 95 61 5.2 9.6 0.00 0.00 0.00 51 1013.8
20260903213432 95 84 4.3 9.6 0.00 0.00 0.00 51 1013.9
20260903213359 95 78 3.5 9.6 0.00 0.00 0.00 51 1013.9
20260903213329 95 71 3.5 9.6 0.00 0.00 0.00 50 1013.9
20260903213022 95 5 5.2 10.4 0.00 0.00 0.00 50 1013.9
20260903212933 95 69 4.3 10.4 0.00 0.00 0.00 49 1014.0
20260903212820 96 77 5.2 11.3 0.00 0.00 0.00 49 1014.0
20260903212727 96 105 6.1 11.3 0.00 0.00 0.00 49 1013.9
20260903212633 96 85 7.0 11.3 0.00 0.00 0.00 49 1013.9
20260903212521 96 27 5.2 11.3 0.00 0.00 0.00 49 1014.0
20260903212428 96 80 3.5 12.2 0.00 0.00 0.00 49 1014.0
20260903212317 96 60 4.3 12.2 0.00 0.00 0.00 48 1013.9
20260903212224 96 9 5.2 12.2 0.00 0.00 0.00 48 1014.0
20260903212130 97 46 5.2 12.2 0.00 0.00 0.00 48 1013.9
20260903212036 97 61 6.1 13.0 0.00 0.00 0.00 48 1013.9
20260903211922 97 83 7.0 13.0 0.00 0.00 0.00 48 1014.0
20260903211829 97 60 7.0 13.0 0.00 0.00 0.00 48 1013.9
20260903211804 98 64 6.1 13.0 0.00 0.00 0.00 49 1013.9
20260903211537 98 37 3.5 13.0 0.00 0.00 0.00 49 1014.0
20260903211443 98 320 4.3 13.0 0.00 0.00 0.00 49 1014.0
20260903211246 98 22 9.6 13.0 0.00 0.00 0.00 49 1014.0
20260903211131 99 31 8.7 13.0 0.00 0.00 0.00 49 1014.0
20260903211022 99 61 7.0 12.2 0.00 0.00 0.00 49 1014.1
20260903210928 99 26 5.2 9.6 0.00 0.00 0.00 49 1014.0
20260903210856 99 38 4.3 9.6 0.00 0.00 0.00 48 1013.8
20260903210721 98 39 4.3 9.6 0.00 0.00 0.00 49 1014.0
20260903210649 98 24 4.3 9.6 0.00 0.00 0.00 49 1014.0
20260903210555 98 58 5.2 9.6 0.00 0.00 0.00 51 1013.9
20260903210422 98 73 5.2 9.6 0.00 0.00 0.00 50 1013.9
20260903210334 98 30 5.2 9.6 0.00 0.00 0.00 53 1013.9
20260903210305 98 88 6.1 9.6 0.00 0.00 0.00 53 1013.9
20260903210038 98 29 3.5 7.0 0.00 0.00 0.00 49 1014.0
20260903205923 98 50 2.6 6.1 0.00 0.00 0.00 49 1014.0
20260903205830 98 66 1.7 6.1 0.00 0.00 0.00 51 1013.9
20260903205722 98 15 2.6 6.1 0.00 0.00 0.00 51 1013.9
20260903205629 98 162 3.5 6.1 0.00 0.00 0.00 48 1014.0
20260903205556 98 140 4.3 6.1 0.00 0.00 0.00 50 1014.0
20260903205422 98 132 2.6 6.1 0.00 0.00 0.00 50 1013.9
20260903205349 98 139 1.7 5.2 0.00 0.00 0.00 49 1014.0
20260903205235 98 92 2.6 5.2 0.00 0.00 0.00 51 1014.0
20260903205126 98 117 2.6 5.2 0.00 0.00 0.00 50 1014.0
20260903205034 98 96 2.6 5.2 0.00 0.00 0.00 49 1014.0
20260903204921 98 336 1.7 4.3 0.00 0.00 0.00 49 1014.0
20260903204802 99 150 1.7 4.3 0.00 0.00 0.00 49 1014.0
20260903204535 99 229 2.6 7.8 0.00 0.00 0.00 50 1014.1
20260903204442 99 215 1.7 7.8 0.00 0.00 0.00 49 1014.0
20260903204329 99 118 1.7 7.8 0.00 0.00 0.00 52 1014.0
20260903204255 99 109 2.6 7.8 0.00 0.00 0.00 49 1014.0
20260903204121 99 127 2.6 7.8 0.00 0.00 0.00 48 1014.1
20260903204049 99 107 1.7 7.8 0.00 0.00 0.00 48 1014.0
20260903203938 99 210 4.3 7.8 0.00 0.00 0.00 49 1014.1
20260903203826 99 240 4.3 7.8 0.00 0.00 0.00 48 1014.0
20260903203733 99 254 3.5 8.7 0.00 0.00 0.00 49 1014.0
20260903203640 99 212 3.5 8.7 0.00 0.00 0.00 50 1014.2
20260903203525 99 227 3.5 8.7 0.00 0.00 0.00 50 1014.1
20260903203432 99 225 2.6 8.7 0.00 0.00 0.00 52 1014.1
20260903203322 99 225 3.5 8.7 0.00 0.00 0.00 50 1014.1
20260903203253 99 187 3.5 8.7 0.00 0.00 0.00 49 1014.1
20260903203025 99 209 4.3 8.7 0.00 0.00 0.00 50 1014.2
20260903202931 99 216 4.3 8.7 0.00 0.00 0.00 50 1014.3
20260903202818 99 199 2.6 5.2 0.00 0.00 0.00 50 1014.2
20260903202729 99 274 3.5 7.0 0.00 0.00 0.00 51 1014.3
20260903202635 99 232 2.6 7.0 0.00 0.00 0.00 50 1014.3
20260903202522 99 236 0.9 8.7 0.00 0.00 0.00 50 1014.3
20260903202430 99 162 1.7 8.7 0.00 0.00 0.00 49 1014.3
20260903202336 99 136 1.7 8.7 0.00 0.00 0.00 49 1014.4
20260903202226 99 171 2.6 8.7 0.00 0.00 0.00 47 1014.4
20260903202134 99 186 3.5 8.7 0.00 0.00 0.00 47 1014.4
20260903202019 99 182 4.3 9.6 0.00 0.00 0.00 49 1014.5
20260903201926 99 168 5.2 11.3 0.00 0.00 0.00 50 1014.4
20260903201852 99 146 6.1 11.3 0.00 0.00 0.00 49 1014.5
20260903201801 99 171 6.1 11.3 0.00 0.00 0.00 49 1014.5
20260903201538 99 170 5.2 11.3 0.00 0.00 0.00 50 1014.5
20260903201424 99 171 5.2 11.3 0.00 0.00 0.00 48 1014.5
20260903201351 99 196 6.1 11.3 0.00 0.00 0.00 49 1014.5
20260903201218 99 194 7.0 11.3 0.00 0.00 0.00 49 1014.5
20260903201123 99 183 4.3 11.3 0.00 0.00 0.00 49 1014.5
20260903201029 99 185 3.5 7.8 0.00 0.00 0.00 52 1014.5
20260903200920 99 131 3.5 7.8 0.00 0.00 0.00 49 1014.5
20260903200847 99 201 2.6 7.8 0.00 0.00 0.00 50 1014.5